Time,TemperatureF,DewpointF,PressureIn,WindDirection,WindDirectionDegrees,WindSpeedMPH,WindSpeedGustMPH,Humidity,HourlyPrecipIn,Conditions,Clouds,dailyrainin,SolarRadiationWatts/m^2,SoftwareType,DateUTC
2013-08-11 00:00:00,75.3,73.5,30.06,North,360,0.0,5.0,94,0.00,,SKC,0.00,0.00,VWS V14.01,2013-08-11 04:00:00,
2013-08-11 00:01:00,75.3,73.5,30.06,North,360,3.0,5.0,94,0.00,,SKC,0.00,0.00,VWS V14.01,2013-08-11 04:01:00,
2013-08-11 00:02:00,75.3,73.5,30.06,North,360,0.0,2.0,94,0.00,,SKC,0.00,0.00,VWS V14.01,2013-08-11 04:02:00,
2013-08-11 00:06:00,75.2,73.4,30.06,North,360,3.0,4.0,94,0.00,,SKC,0.00,0.00,VWS V14.01,2013-08-11 04:06:00,
2013-08-11 00:07:00,75.2,73.4,30.06,North,360,0.0,4.0,94,0.00,,SKC,0.00,0.00,VWS V14.01,2013-08-11 04:07:00,
2013-08-11 00:12:00,75.1,73.3,30.06,North,360,0.0,4.0,94,0.00,,SKC,0.00,0.00,VWS V14.01,2013-08-11 04:12:00,
2013-08-11 00:17:00,75.0,73.2,30.06,North,360,0.0,4.0,94,0.00,,SKC,0.00,0.00,VWS V14.01,2013-08-11 04:17:00,
2013-08-11 00:18:00,75.0,73.2,30.06,North,360,0.0,4.0,94,0.00,,SKC,0.00,0.00,VWS V14.01,2013-08-11 04:18:00,
2013-08-11 00:22:00,75.0,73.2,30.06,North,360,0.0,4.0,94,0.00,,SKC,0.00,0.00,VWS V14.01,2013-08-11 04:22:00,
2013-08-11 00:23:00,75.0,73.2,30.06,North,360,0.0,4.0,94,0.00,,SKC,0.00,0.00,VWS V14.01,2013-08-11 04:23:00,
2013-08-11 00:27:00,75.0,73.2,30.06,North,360,1.0,4.0,94,0.00,,SKC,0.00,0.00,VWS V14.01,2013-08-11 04:27:00,
2013-08-11 00:28:00,75.0,73.2,30.06,North,360,2.0,4.0,94,0.00,,SKC,0.00,0.00,VWS V14.01,2013-08-11 04:28:00,
2013-08-11 00:29:00,74.9,73.1,30.06,North,360,1.0,4.0,94,0.00,,SKC,0.00,0.00,VWS V14.01,2013-08-11 04:29:00,
2013-08-11 00:32:00,74.9,73.1,30.06,North,360,2.0,2.0,94,0.00,,SKC,0.00,0.00,VWS V14.01,2013-08-11 04:32:00,
2013-08-11 00:33:00,74.9,73.1,30.06,North,360,0.0,2.0,94,0.00,,SKC,0.00,0.00,VWS V14.01,2013-08-11 04:33:00,
2013-08-11 00:35:00,74.8,73.0,30.05,North,360,3.0,3.0,94,0.00,,SKC,0.00,0.00,VWS V14.01,2013-08-11 04:35:00,
2013-08-11 00:37:00,74.8,73.0,30.05,North,360,1.0,3.0,94,0.00,,SKC,0.00,0.00,VWS V14.01,2013-08-11 04:37:00,
2013-08-11 00:38:00,74.8,73.0,30.05,North,360,0.0,3.0,94,0.00,,SKC,0.00,0.00,VWS V14.01,2013-08-11 04:38:00,
2013-08-11 00:39:00,74.8,73.0,30.05,North,360,0.0,3.0,94,0.00,,SKC,0.00,0.00,VWS V14.01,2013-08-11 04:39:00,
2013-08-11 00:40:00,74.7,72.9,30.06,North,360,2.0,5.0,94,0.00,,SKC,0.00,0.00,VWS V14.01,2013-08-11 04:40:00,
2013-08-11 00:42:00,74.6,72.8,30.06,North,360,2.0,5.0,94,0.00,,SKC,0.00,0.00,VWS V14.01,2013-08-11 04:42:00,
2013-08-11 00:43:00,74.6,72.8,30.06,North,360,0.0,5.0,94,0.00,,SKC,0.00,0.00,VWS V14.01,2013-08-11 04:43:00,
2013-08-11 00:44:00,74.6,72.8,30.06,North,360,2.0,5.0,94,0.00,,SKC,0.00,0.00,VWS V14.01,2013-08-11 04:44:00,
2013-08-11 00:45:00,74.5,72.7,30.06,North,360,0.0,5.0,94,0.00,,SKC,0.00,0.00,VWS V14.01,2013-08-11 04:45:00,
2013-08-11 00:48:00,74.5,73.0,30.06,North,360,2.0,5.0,95,0.00,,SKC,0.00,0.00,VWS V14.01,2013-08-11 04:48:00,
2013-08-11 00:49:00,74.5,73.0,30.06,North,360,0.0,5.0,95,0.00,,SKC,0.00,0.00,VWS V14.01,2013-08-11 04:49:00,
2013-08-11 00:50:00,74.5,73.0,30.06,North,360,3.0,5.0,95,0.00,,SKC,0.00,0.00,VWS V14.01,2013-08-11 04:50:00,
2013-08-11 00:53:00,74.4,72.9,30.06,North,360,2.0,5.0,95,0.00,,SKC,0.00,0.00,VWS V14.01,2013-08-11 04:53:00,
2013-08-11 00:54:00,74.4,72.9,30.06,North,360,2.0,5.0,95,0.00,,SKC,0.00,0.00,VWS V14.01,2013-08-11 04:54:00,
2013-08-11 00:55:00,74.4,72.9,30.06,North,360,1.0,5.0,95,0.00,,SKC,0.00,0.00,VWS V14.01,2013-08-11 04:55:00,
2013-08-11 00:56:00,74.3,72.8,30.06,North,360,1.0,5.0,95,0.00,,SKC,0.00,0.00,VWS V14.01,2013-08-11 04:56:00,
2013-08-11 00:58:00,74.3,72.8,30.06,North,360,1.0,5.0,95,0.00,,SKC,0.00,0.00,VWS V14.01,2013-08-11 04:58:00,
2013-08-11 00:59:00,74.3,72.8,30.06,North,360,1.0,5.0,95,0.00,,SKC,0.00,0.00,VWS V14.01,2013-08-11 04:59:00,
2013-08-11 01:00:00,74.3,72.8,30.06,North,360,1.0,5.0,95,0.00,,SKC,0.00,0.00,VWS V14.01,2013-08-11 05:00:00,
2013-08-11 01:01:00,74.2,72.7,30.06,North,360,0.0,1.0,95,0.00,,SKC,0.00,0.00,VWS V14.01,2013-08-11 05:01:00,
2013-08-11 01:03:00,74.2,72.7,30.06,North,360,1.0,1.0,95,0.00,,SKC,0.00,0.00,VWS V14.01,2013-08-11 05:03:00,
2013-08-11 01:04:00,74.2,72.7,30.06,North,360,0.0,1.0,95,0.00,,SKC,0.00,0.00,VWS V14.01,2013-08-11 05:04:00,
2013-08-11 01:05:00,74.2,72.7,30.06,North,360,0.0,1.0,95,0.00,,SKC,0.00,0.00,VWS V14.01,2013-08-11 05:05:00,
2013-08-11 01:07:00,74.2,72.7,30.06,North,360,0.0,1.0,95,0.00,,SKC,0.00,0.00,VWS V14.01,2013-08-11 05:07:00,
2013-08-11 01:08:00,74.1,72.6,30.05,North,360,1.0,3.0,95,0.00,,SKC,0.00,0.00,VWS V14.01,2013-08-11 05:08:00,
2013-08-11 01:09:00,74.1,72.6,30.06,North,360,0.0,3.0,95,0.00,,SKC,0.00,0.00,VWS V14.01,2013-08-11 05:09:00,
2013-08-11 01:10:00,74.1,72.6,30.06,North,360,1.0,3.0,95,0.00,,SKC,0.00,0.00,VWS V14.01,2013-08-11 05:10:00,
2013-08-11 01:13:00,74.1,72.6,30.06,North,360,0.0,3.0,95,0.00,,SKC,0.00,0.00,VWS V14.01,2013-08-11 05:13:00,
2013-08-11 01:14:00,74.0,72.5,30.05,North,360,0.0,3.0,95,0.00,,SKC,0.00,0.00,VWS V14.01,2013-08-11 05:14:00,
2013-08-11 01:15:00,74.0,72.5,30.06,North,360,0.0,3.0,95,0.00,,SKC,0.00,0.00,VWS V14.01,2013-08-11 05:15:00,
2013-08-11 01:16:00,74.0,72.5,30.06,North,360,0.0,3.0,95,0.00,,SKC,0.00,0.00,VWS V14.01,2013-08-11 05:16:00,
2013-08-11 01:18:00,74.0,72.5,30.06,North,360,0.0,3.0,95,0.00,,SKC,0.00,0.00,VWS V14.01,2013-08-11 05:18:00,
2013-08-11 01:19:00,73.9,72.4,30.06,North,360,0.0,3.0,95,0.00,,SKC,0.00,0.00,VWS V14.01,2013-08-11 05:19:00,
2013-08-11 01:20:00,73.9,72.4,30.06,North,360,0.0,3.0,95,0.00,,SKC,0.00,0.00,VWS V14.01,2013-08-11 05:20:00,
2013-08-11 01:21:00,73.9,72.4,30.06,North,360,1.0,3.0,95,0.00,,SKC,0.00,0.00,VWS V14.01,2013-08-11 05:21:00,
2013-08-11 01:24:00,73.9,72.4,30.06,North,360,0.0,3.0,95,0.00,,SKC,0.00,0.00,VWS V14.01,2013-08-11 05:24:00,
2013-08-11 01:25:00,73.9,72.4,30.06,North,360,0.0,3.0,95,0.00,,SKC,0.00,0.00,VWS V14.01,2013-08-11 05:25:00,
2013-08-11 01:26:00,73.9,72.4,30.06,North,360,0.0,3.0,95,0.00,,SKC,0.00,0.00,VWS V14.01,2013-08-11 05:26:00,
2013-08-11 01:27:00,73.8,72.3,30.06,North,360,0.0,3.0,95,0.00,,SKC,0.00,0.00,VWS V14.01,2013-08-11 05:27:00,
2013-08-11 01:29:00,73.8,72.3,30.06,North,360,0.0,3.0,95,0.00,,SKC,0.00,0.00,VWS V14.01,2013-08-11 05:29:00,
2013-08-11 01:30:00,73.8,72.3,30.06,North,360,0.0,3.0,95,0.00,,SKC,0.00,0.00,VWS V14.01,2013-08-11 05:30:00,
2013-08-11 01:31:00,73.8,72.3,30.06,North,360,0.0,3.0,95,0.00,,SKC,0.00,0.00,VWS V14.01,2013-08-11 05:31:00,
2013-08-11 01:32:00,73.7,72.2,30.06,North,360,0.0,0.0,95,0.00,,SKC,0.00,0.00,VWS V14.01,2013-08-11 05:32:00,
2013-08-11 01:34:00,73.7,72.2,30.06,North,360,0.0,0.0,95,0.00,,SKC,0.00,0.00,VWS V14.01,2013-08-11 05:34:00,
2013-08-11 01:35:00,73.7,72.2,30.06,North,360,0.0,0.0,95,0.00,,SKC,0.00,0.00,VWS V14.01,2013-08-11 05:35:00,
2013-08-11 01:36:00,73.7,72.2,30.05,North,360,0.0,0.0,95,0.00,,SKC,0.00,0.00,VWS V14.01,2013-08-11 05:36:00,
2013-08-11 01:37:00,73.7,72.2,30.05,North,360,0.0,1.0,95,0.00,,SKC,0.00,0.00,VWS V14.01,2013-08-11 05:37:00,
2013-08-11 01:39:00,73.6,72.4,30.05,North,360,0.0,1.0,96,0.00,,SKC,0.00,0.00,VWS V14.01,2013-08-11 05:39:00,
2013-08-11 01:41:00,73.6,72.4,30.05,North,360,0.0,1.0,96,0.00,,SKC,0.00,0.00,VWS V14.01,2013-08-11 05:41:00,
2013-08-11 01:42:00,73.5,72.0,30.05,North,360,2.0,2.0,95,0.00,,SKC,0.00,0.00,VWS V14.01,2013-08-11 05:42:00,
2013-08-11 01:45:00,73.5,72.0,30.05,North,360,1.0,3.0,95,0.00,,SKC,0.00,0.00,VWS V14.01,2013-08-11 05:45:00,
2013-08-11 01:46:00,73.5,72.0,30.05,North,360,2.0,3.0,95,0.00,,SKC,0.00,0.00,VWS V14.01,2013-08-11 05:46:00,
2013-08-11 01:47:00,73.4,71.9,30.05,North,360,3.0,4.0,95,0.00,,SKC,0.00,0.00,VWS V14.01,2013-08-11 05:47:00,
2013-08-11 01:50:00,73.4,72.2,30.05,North,360,1.0,4.0,96,0.00,,SKC,0.00,0.00,VWS V14.01,2013-08-11 05:50:00,
2013-08-11 01:52:00,73.3,72.1,30.05,North,360,1.0,4.0,96,0.00,,SKC,0.00,0.00,VWS V14.01,2013-08-11 05:52:00,
2013-08-11 01:53:00,73.3,72.1,30.05,North,360,1.0,4.0,96,0.00,,SKC,0.00,0.00,VWS V14.01,2013-08-11 05:53:00,
2013-08-11 01:55:00,73.3,72.1,30.05,North,360,0.0,4.0,96,0.00,,SKC,0.00,0.00,VWS V14.01,2013-08-11 05:55:00,
2013-08-11 01:58:00,73.3,72.1,30.05,North,360,0.0,4.0,96,0.00,,SKC,0.00,0.00,VWS V14.01,2013-08-11 05:58:00,
2013-08-11 01:59:00,73.3,72.1,30.05,North,360,0.0,4.0,96,0.00,,SKC,0.00,0.00,VWS V14.01,2013-08-11 05:59:00,
2013-08-11 02:00:00,73.2,72.0,30.05,North,360,0.0,4.0,96,0.00,,SKC,0.00,0.00,VWS V14.01,2013-08-11 06:00:00,
2013-08-11 02:03:00,73.2,72.0,30.05,North,360,0.0,0.0,96,0.00,,SKC,0.00,0.00,VWS V14.01,2013-08-11 06:03:00,
2013-08-11 02:05:00,73.2,72.0,30.05,North,360,0.0,1.0,96,0.00,,SKC,0.00,0.00,VWS V14.01,2013-08-11 06:05:00,
2013-08-11 02:08:00,73.2,72.0,30.05,North,360,0.0,2.0,96,0.00,,SKC,0.00,0.00,VWS V14.01,2013-08-11 06:08:00,
2013-08-11 02:10:00,73.2,72.0,30.05,North,360,2.0,2.0,96,0.00,,SKC,0.00,0.00,VWS V14.01,2013-08-11 06:10:00,
2013-08-11 02:11:00,73.2,72.0,30.05,North,360,0.0,2.0,96,0.00,,SKC,0.00,0.00,VWS V14.01,2013-08-11 06:11:00,
2013-08-11 02:13:00,73.2,72.0,30.05,North,360,0.0,2.0,96,0.00,,SKC,0.00,0.00,VWS V14.01,2013-08-11 06:13:00,
2013-08-11 02:14:00,73.2,72.0,30.05,North,360,0.0,2.0,96,0.00,,SKC,0.00,0.00,VWS V14.01,2013-08-11 06:14:00,
2013-08-11 02:15:00,73.2,72.0,30.05,North,360,1.0,2.0,96,0.00,,SKC,0.00,0.00,VWS V14.01,2013-08-11 06:15:00,
2013-08-11 02:16:00,73.2,72.0,30.05,North,360,2.0,2.0,96,0.00,,SKC,0.00,0.00,VWS V14.01,2013-08-11 06:16:00,
2013-08-11 02:19:00,73.2,72.0,30.05,North,360,0.0,2.0,96,0.00,,SKC,0.00,0.00,VWS V14.01,2013-08-11 06:19:00,
2013-08-11 02:20:00,73.1,71.9,30.05,North,360,0.0,2.0,96,0.00,,SKC,0.00,0.00,VWS V14.01,2013-08-11 06:20:00,
2013-08-11 02:21:00,73.1,71.9,30.05,North,360,0.0,2.0,96,0.00,,SKC,0.00,0.00,VWS V14.01,2013-08-11 06:21:00,
2013-08-11 02:25:00,73.2,72.0,30.05,North,360,0.0,2.0,96,0.00,,SKC,0.00,0.00,VWS V14.01,2013-08-11 06:25:00,
2013-08-11 02:26:00,73.2,72.0,30.05,North,360,0.0,2.0,96,0.00,,SKC,0.00,0.00,VWS V14.01,2013-08-11 06:26:00,
2013-08-11 02:27:00,73.2,72.0,30.05,North,360,0.0,2.0,96,0.00,,SKC,0.00,0.00,VWS V14.01,2013-08-11 06:27:00,
2013-08-11 02:31:00,73.2,72.0,30.05,North,360,0.0,3.0,96,0.00,,SKC,0.00,0.00,VWS V14.01,2013-08-11 06:31:00,
2013-08-11 02:32:00,73.2,72.0,30.05,North,360,0.0,0.0,96,0.00,,SKC,0.00,0.00,VWS V14.01,2013-08-11 06:32:00,
2013-08-11 02:36:00,73.1,71.9,30.05,North,360,0.0,3.0,96,0.00,,SKC,0.00,0.00,VWS V14.01,2013-08-11 06:36:00,
2013-08-11 02:37:00,73.1,71.9,30.05,North,360,1.0,3.0,96,0.00,,SKC,0.00,0.00,VWS V14.01,2013-08-11 06:37:00,
2013-08-11 02:38:00,73.1,71.9,30.05,North,360,0.0,3.0,96,0.00,,SKC,0.00,0.00,VWS V14.01,2013-08-11 06:38:00,
2013-08-11 02:41:00,73.1,71.9,30.05,North,360,0.0,3.0,96,0.00,,SKC,0.00,0.00,VWS V14.01,2013-08-11 06:41:00,
2013-08-11 02:42:00,73.1,71.9,30.05,North,360,0.0,3.0,96,0.00,,SKC,0.00,0.00,VWS V14.01,2013-08-11 06:42:00,
2013-08-11 02:43:00,73.1,71.9,30.05,North,360,1.0,3.0,96,0.00,,SKC,0.00,0.00,VWS V14.01,2013-08-11 06:43:00,
2013-08-11 02:47:00,73.1,71.9,30.05,North,360,1.0,3.0,96,0.00,,SKC,0.00,0.00,VWS V14.01,2013-08-11 06:47:00,
2013-08-11 02:48:00,73.1,71.9,30.05,North,360,1.0,3.0,96,0.00,,SKC,0.00,0.00,VWS V14.01,2013-08-11 06:48:00,
2013-08-11 02:52:00,73.1,71.9,30.05,North,360,1.0,3.0,96,0.00,,SKC,0.00,0.00,VWS V14.01,2013-08-11 06:52:00,
2013-08-11 02:53:00,73.1,71.9,30.05,North,360,1.0,3.0,96,0.00,,SKC,0.00,0.00,VWS V14.01,2013-08-11 06:53:00,
2013-08-11 02:58:00,73.1,71.9,30.05,North,360,0.0,4.0,96,0.00,,SKC,0.00,0.00,VWS V14.01,2013-08-11 06:58:00,
2013-08-11 03:00:00,73.1,71.9,30.05,North,360,0.0,4.0,96,0.00,,SKC,0.00,0.00,VWS V14.01,2013-08-11 07:00:00,
2013-08-11 03:03:00,73.1,71.9,30.05,North,360,0.0,1.0,96,0.00,,SKC,0.00,0.00,VWS V14.01,2013-08-11 07:03:00,
2013-08-11 03:04:00,73.1,71.9,30.05,North,360,0.0,1.0,96,0.00,,SKC,0.00,0.00,VWS V14.01,2013-08-11 07:04:00,
2013-08-11 03:05:00,73.1,71.9,30.05,North,360,0.0,1.0,96,0.00,,SKC,0.00,0.00,VWS V14.01,2013-08-11 07:05:00,
2013-08-11 03:08:00,73.1,71.9,30.05,North,9,0.0,3.0,96,0.00,,SKC,0.00,0.00,VWS V14.01,2013-08-11 07:08:00,
2013-08-11 03:09:00,73.1,71.9,30.05,North,9,0.0,3.0,96,0.00,,SKC,0.00,0.00,VWS V14.01,2013-08-11 07:09:00,
2013-08-11 03:10:00,73.1,71.9,30.05,North,9,0.0,3.0,96,0.00,,SKC,0.00,0.00,VWS V14.01,2013-08-11 07:10:00,
2013-08-11 03:13:00,73.1,71.9,30.05,North,9,0.0,3.0,96,0.00,,SKC,0.00,0.00,VWS V14.01,2013-08-11 07:13:00,
2013-08-11 03:14:00,73.1,71.9,30.05,North,9,0.0,3.0,96,0.00,,SKC,0.00,0.00,VWS V14.01,2013-08-11 07:14:00,
2013-08-11 03:15:00,73.1,71.9,30.05,North,9,0.0,3.0,96,0.00,,SKC,0.00,0.00,VWS V14.01,2013-08-11 07:15:00,
2013-08-11 03:19:00,73.1,71.9,30.05,North,9,0.0,3.0,96,0.00,,SKC,0.00,0.00,VWS V14.01,2013-08-11 07:19:00,
2013-08-11 03:20:00,73.1,71.9,30.05,North,9,0.0,3.0,96,0.00,,SKC,0.00,0.00,VWS V14.01,2013-08-11 07:20:00,
2013-08-11 03:21:00,73.0,71.8,30.05,North,9,0.0,3.0,96,0.00,,SKC,0.00,0.00,VWS V14.01,2013-08-11 07:21:00,
2013-08-11 03:24:00,73.0,71.8,30.05,North,9,0.0,3.0,96,0.00,,SKC,0.00,0.00,VWS V14.01,2013-08-11 07:24:00,
2013-08-11 03:25:00,73.0,71.8,30.05,North,9,0.0,3.0,96,0.00,,SKC,0.00,0.00,VWS V14.01,2013-08-11 07:25:00,
2013-08-11 03:26:00,73.0,71.8,30.05,North,10,2.0,3.0,96,0.00,,SKC,0.00,0.00,VWS V14.01,2013-08-11 07:26:00,
2013-08-11 03:30:00,73.0,71.8,30.05,North,10,0.0,3.0,96,0.00,,SKC,0.00,0.00,VWS V14.01,2013-08-11 07:30:00,
2013-08-11 03:31:00,73.0,71.8,30.05,North,10,1.0,3.0,96,0.00,,SKC,0.00,0.00,VWS V14.01,2013-08-11 07:31:00,
2013-08-11 03:35:00,72.9,71.7,30.05,NE,47,0.0,4.0,96,0.00,,SKC,0.00,0.00,VWS V14.01,2013-08-11 07:35:00,
2013-08-11 03:36:00,72.9,71.7,30.06,NE,47,0.0,4.0,96,0.00,,SKC,0.00,0.00,VWS V14.01,2013-08-11 07:36:00,
2013-08-11 03:37:00,72.9,71.7,30.06,NE,47,0.0,4.0,96,0.00,,SKC,0.00,0.00,VWS V14.01,2013-08-11 07:37:00,
2013-08-11 03:41:00,72.9,71.7,30.06,NE,48,0.0,4.0,96,0.00,,SKC,0.00,0.00,VWS V14.01,2013-08-11 07:41:00,
2013-08-11 03:42:00,72.9,71.7,30.06,NE,47,0.0,4.0,96,0.00,,SKC,0.00,0.00,VWS V14.01,2013-08-11 07:42:00,
2013-08-11 03:46:00,72.9,71.7,30.06,NE,47,0.0,4.0,96,0.00,,SKC,0.00,0.00,VWS V14.01,2013-08-11 07:46:00,
2013-08-11 03:47:00,72.9,71.7,30.06,NE,47,0.0,4.0,96,0.00,,SKC,0.00,0.00,VWS V14.01,2013-08-11 07:47:00,
2013-08-11 03:52:00,72.9,71.7,30.06,NE,47,0.0,4.0,96,0.00,,SKC,0.00,0.00,VWS V14.01,2013-08-11 07:52:00,
2013-08-11 03:53:00,72.9,71.7,30.06,NE,47,0.0,4.0,96,0.00,,SKC,0.00,0.00,VWS V14.01,2013-08-11 07:53:00,
2013-08-11 03:57:00,72.9,71.7,30.06,NE,47,0.0,4.0,96,0.00,,SKC,0.00,0.00,VWS V14.01,2013-08-11 07:57:00,
2013-08-11 03:58:00,72.9,71.7,30.06,NE,47,0.0,4.0,96,0.00,,SKC,0.00,0.00,VWS V14.01,2013-08-11 07:58:00,
2013-08-11 04:03:00,72.9,71.7,30.06,NE,47,0.0,0.0,96,0.00,,SKC,0.00,0.00,VWS V14.01,2013-08-11 08:03:00,
2013-08-11 04:04:00,72.9,71.7,30.06,NE,47,0.0,0.0,96,0.00,,SKC,0.00,0.00,VWS V14.01,2013-08-11 08:04:00,
2013-08-11 04:08:00,72.9,71.7,30.06,NE,47,0.0,0.0,96,0.00,,SKC,0.00,0.00,VWS V14.01,2013-08-11 08:08:00,
2013-08-11 04:09:00,72.9,71.7,30.06,NE,47,0.0,0.0,96,0.00,,SKC,0.00,0.00,VWS V14.01,2013-08-11 08:09:00,
2013-08-11 04:10:00,72.9,71.7,30.06,NE,47,0.0,0.0,96,0.00,,SKC,0.00,0.00,VWS V14.01,2013-08-11 08:10:00,
2013-08-11 04:13:00,72.9,71.7,30.06,NE,47,0.0,0.0,96,0.00,,SKC,0.00,0.00,VWS V14.01,2013-08-11 08:13:00,
2013-08-11 04:14:00,72.9,71.7,30.06,NE,47,0.0,0.0,96,0.00,,SKC,0.00,0.00,VWS V14.01,2013-08-11 08:14:00,
2013-08-11 04:15:00,72.9,71.7,30.06,NE,47,0.0,0.0,96,0.00,,SKC,0.00,0.00,VWS V14.01,2013-08-11 08:15:00,
2013-08-11 04:18:00,72.9,71.7,30.06,NE,47,0.0,0.0,96,0.00,,SKC,0.00,0.00,VWS V14.01,2013-08-11 08:18:00,
2013-08-11 04:19:00,72.9,71.7,30.06,NE,48,0.0,0.0,96,0.00,,SKC,0.00,0.00,VWS V14.01,2013-08-11 08:19:00,
2013-08-11 04:20:00,72.9,71.7,30.06,NE,47,0.0,0.0,96,0.00,,SKC,0.00,0.00,VWS V14.01,2013-08-11 08:20:00,
2013-08-11 04:21:00,72.9,71.7,30.06,NE,47,0.0,0.0,96,0.00,,SKC,0.00,0.00,VWS V14.01,2013-08-11 08:21:00,
2013-08-11 04:23:00,72.9,71.7,30.06,NE,47,0.0,0.0,96,0.00,,SKC,0.00,0.00,VWS V14.01,2013-08-11 08:23:00,
2013-08-11 04:24:00,72.9,71.7,30.06,NE,47,0.0,0.0,96,0.00,,SKC,0.00,0.00,VWS V14.01,2013-08-11 08:24:00,
2013-08-11 04:26:00,73.0,71.8,30.06,NE,47,0.0,0.0,96,0.00,,SKC,0.00,0.00,VWS V14.01,2013-08-11 08:26:00,
2013-08-11 04:28:00,73.0,71.8,30.06,NE,47,0.0,0.0,96,0.00,,SKC,0.00,0.00,VWS V14.01,2013-08-11 08:28:00,
2013-08-11 04:29:00,73.0,71.8,30.06,NE,47,0.0,0.0,96,0.00,,SKC,0.00,0.00,VWS V14.01,2013-08-11 08:29:00,
2013-08-11 04:32:00,73.0,71.8,30.06,NE,47,0.0,0.0,96,0.00,,SKC,0.00,0.00,VWS V14.01,2013-08-11 08:32:00,
2013-08-11 04:34:00,73.0,71.8,30.06,NE,47,0.0,0.0,96,0.00,,SKC,0.00,0.00,VWS V14.01,2013-08-11 08:34:00,
2013-08-11 04:38:00,73.0,71.8,30.07,NE,47,0.0,0.0,96,0.00,,SKC,0.00,0.00,VWS V14.01,2013-08-11 08:38:00,
2013-08-11 04:39:00,73.0,71.8,30.07,NE,47,0.0,0.0,96,0.00,,SKC,0.00,0.00,VWS V14.01,2013-08-11 08:39:00,
2013-08-11 04:40:00,72.9,71.7,30.07,NE,47,0.0,0.0,96,0.00,,SKC,0.00,0.00,VWS V14.01,2013-08-11 08:40:00,
2013-08-11 04:43:00,72.9,71.7,30.07,NE,47,0.0,2.0,96,0.00,,SKC,0.00,0.00,VWS V14.01,2013-08-11 08:43:00,
2013-08-11 04:45:00,72.8,71.6,30.07,NE,47,0.0,2.0,96,0.00,,SKC,0.00,0.00,VWS V14.01,2013-08-11 08:45:00,
2013-08-11 04:49:00,72.8,71.6,30.07,NE,47,0.0,2.0,96,0.00,,SKC,0.00,0.00,VWS V14.01,2013-08-11 08:49:00,
2013-08-11 04:50:00,72.8,71.6,30.07,NE,47,0.0,2.0,96,0.00,,SKC,0.00,0.00,VWS V14.01,2013-08-11 08:50:00,
2013-08-11 04:54:00,72.8,71.6,30.07,NE,47,0.0,2.0,96,0.00,,SKC,0.00,0.00,VWS V14.01,2013-08-11 08:54:00,
2013-08-11 04:55:00,72.8,71.6,30.07,NE,47,0.0,2.0,96,0.00,,SKC,0.00,0.00,VWS V14.01,2013-08-11 08:55:00,
2013-08-11 04:57:00,72.8,71.6,30.07,NE,47,0.0,2.0,96,0.00,,SKC,0.00,0.00,VWS V14.01,2013-08-11 08:57:00,
2013-08-11 05:00:00,72.8,71.6,30.07,NE,47,0.0,2.0,96,0.00,,SKC,0.00,0.00,VWS V14.01,2013-08-11 09:00:00,
2013-08-11 05:02:00,72.9,71.7,30.07,NE,47,0.0,0.0,96,0.00,,SKC,0.00,0.00,VWS V14.01,2013-08-11 09:02:00,
2013-08-11 05:05:00,72.9,71.7,30.07,NE,47,0.0,0.0,96,0.00,,SKC,0.00,0.00,VWS V14.01,2013-08-11 09:05:00,
2013-08-11 05:06:00,72.9,71.7,30.07,NE,47,0.0,0.0,96,0.00,,SKC,0.00,0.00,VWS V14.01,2013-08-11 09:06:00,
2013-08-11 05:08:00,72.9,71.7,30.07,NE,47,0.0,0.0,96,0.00,,SKC,0.00,0.00,VWS V14.01,2013-08-11 09:08:00,
2013-08-11 05:10:00,72.9,71.7,30.07,NE,47,0.0,0.0,96,0.00,,SKC,0.00,0.00,VWS V14.01,2013-08-11 09:10:00,
2013-08-11 05:11:00,72.9,71.7,30.07,NE,47,0.0,0.0,96,0.00,,SKC,0.00,0.00,VWS V14.01,2013-08-11 09:11:00,
2013-08-11 05:13:00,72.9,71.7,30.07,NE,47,0.0,0.0,96,0.00,,SKC,0.00,0.00,VWS V14.01,2013-08-11 09:13:00,
2013-08-11 05:15:00,72.9,71.7,30.07,NE,47,0.0,0.0,96,0.00,,SKC,0.00,0.00,VWS V14.01,2013-08-11 09:15:00,
2013-08-11 05:16:00,72.9,71.7,30.07,NE,47,0.0,0.0,96,0.00,,SKC,0.00,0.00,VWS V14.01,2013-08-11 09:16:00,
2013-08-11 05:17:00,72.9,71.7,30.07,NE,47,0.0,0.0,96,0.00,,SKC,0.00,0.00,VWS V14.01,2013-08-11 09:17:00,
2013-08-11 05:18:00,72.9,71.7,30.07,NE,47,0.0,0.0,96,0.00,,SKC,0.00,0.00,VWS V14.01,2013-08-11 09:18:00,
2013-08-11 05:20:00,72.9,71.7,30.07,NE,47,0.0,1.0,96,0.00,,SKC,0.00,0.00,VWS V14.01,2013-08-11 09:20:00,
2013-08-11 05:22:00,72.9,71.7,30.06,NE,47,1.0,1.0,96,0.00,,SKC,0.00,0.00,VWS V14.01,2013-08-11 09:22:00,
2013-08-11 05:23:00,72.9,71.7,30.06,NE,47,0.0,1.0,96,0.00,,SKC,0.00,0.00,VWS V14.01,2013-08-11 09:23:00,
2013-08-11 05:25:00,72.8,71.6,30.06,NE,47,0.0,2.0,96,0.00,,SKC,0.00,0.00,VWS V14.01,2013-08-11 09:25:00,
2013-08-11 05:27:00,72.8,71.6,30.06,NE,47,1.0,2.0,96,0.00,,SKC,0.00,0.00,VWS V14.01,2013-08-11 09:27:00,
2013-08-11 05:28:00,72.8,71.6,30.06,NE,47,0.0,2.0,96,0.00,,SKC,0.00,0.00,VWS V14.01,2013-08-11 09:28:00,
2013-08-11 05:31:00,72.8,71.6,30.06,NE,48,0.0,2.0,96,0.00,,SKC,0.00,0.00,VWS V14.01,2013-08-11 09:31:00,
2013-08-11 05:32:00,72.8,71.6,30.06,NE,47,0.0,0.0,96,0.00,,SKC,0.00,0.00,VWS V14.01,2013-08-11 09:32:00,
2013-08-11 05:34:00,72.8,71.6,30.06,NE,47,0.0,0.0,96,0.00,,SKC,0.00,0.00,VWS V14.01,2013-08-11 09:34:00,
2013-08-11 05:36:00,72.8,71.6,30.07,NE,47,0.0,1.0,96,0.00,,SKC,0.00,0.00,VWS V14.01,2013-08-11 09:36:00,
2013-08-11 05:38:00,72.8,71.6,30.07,NE,47,0.0,1.0,96,0.00,,SKC,0.00,0.00,VWS V14.01,2013-08-11 09:38:00,
2013-08-11 05:39:00,72.8,71.6,30.07,NE,47,0.0,1.0,96,0.00,,SKC,0.00,0.00,VWS V14.01,2013-08-11 09:39:00,
2013-08-11 05:41:00,72.8,71.6,30.07,NE,47,0.0,1.0,96,0.00,,SKC,0.00,0.00,VWS V14.01,2013-08-11 09:41:00,
2013-08-11 05:43:00,72.8,71.6,30.07,NE,47,0.0,1.0,96,0.00,,SKC,0.00,0.00,VWS V14.01,2013-08-11 09:43:00,
2013-08-11 05:44:00,72.8,71.6,30.07,NE,47,0.0,1.0,96,0.00,,SKC,0.00,0.00,VWS V14.01,2013-08-11 09:44:00,
2013-08-11 05:47:00,72.8,71.6,30.07,NE,47,0.0,1.0,96,0.00,,SKC,0.00,0.00,VWS V14.01,2013-08-11 09:47:00,
2013-08-11 05:48:00,72.8,71.6,30.07,NE,47,0.0,1.0,96,0.00,,SKC,0.00,0.00,VWS V14.01,2013-08-11 09:48:00,
2013-08-11 05:49:00,72.8,71.6,30.07,NE,47,0.0,1.0,96,0.00,,SKC,0.00,0.00,VWS V14.01,2013-08-11 09:49:00,
2013-08-11 05:50:00,72.8,71.6,30.07,NE,48,0.0,1.0,96,0.00,,SKC,0.00,0.00,VWS V14.01,2013-08-11 09:50:00,
2013-08-11 05:52:00,72.8,71.6,30.07,NE,47,0.0,1.0,96,0.00,,SKC,0.00,0.00,VWS V14.01,2013-08-11 09:52:00,
2013-08-11 05:54:00,72.8,71.6,30.07,NE,48,0.0,1.0,96,0.00,,SKC,0.00,0.00,VWS V14.01,2013-08-11 09:54:00,
2013-08-11 05:55:00,72.8,71.6,30.07,NE,47,0.0,1.0,96,0.00,,SKC,0.00,0.00,VWS V14.01,2013-08-11 09:55:00,
2013-08-11 05:57:00,72.8,71.6,30.07,NE,47,0.0,1.0,96,0.00,,SKC,0.00,0.00,VWS V14.01,2013-08-11 09:57:00,
2013-08-11 06:00:00,72.8,71.6,30.07,NE,47,0.0,1.0,96,0.00,,SKC,0.00,0.00,VWS V14.01,2013-08-11 10:00:00,
2013-08-11 06:01:00,72.7,71.5,30.07,NE,47,0.0,1.0,96,0.00,,SKC,0.00,0.00,VWS V14.01,2013-08-11 10:01:00,
2013-08-11 06:03:00,72.7,71.5,30.07,NE,47,0.0,0.0,96,0.00,,SKC,0.00,0.00,VWS V14.01,2013-08-11 10:03:00,
2013-08-11 06:06:00,72.7,71.5,30.07,NE,47,0.0,0.0,96,0.00,,SKC,0.00,0.00,VWS V14.01,2013-08-11 10:06:00,
2013-08-11 06:08:00,72.7,71.5,30.07,NE,47,0.0,0.0,96,0.00,,SKC,0.00,0.00,VWS V14.01,2013-08-11 10:08:00,
2013-08-11 06:11:00,72.7,71.5,30.07,NE,47,0.0,0.0,96,0.00,,SKC,0.00,0.00,VWS V14.01,2013-08-11 10:11:00,
2013-08-11 06:12:00,72.7,71.5,30.07,NE,47,0.0,0.0,96,0.00,,SKC,0.00,0.00,VWS V14.01,2013-08-11 10:12:00,
2013-08-11 06:13:00,72.7,71.5,30.07,NE,47,0.0,0.0,96,0.00,,SKC,0.00,0.00,VWS V14.01,2013-08-11 10:13:00,
2013-08-11 06:17:00,72.7,71.5,30.07,NE,47,0.0,0.0,96,0.00,,SKC,0.00,0.00,VWS V14.01,2013-08-11 10:17:00,
2013-08-11 06:18:00,72.7,71.5,30.07,NE,47,0.0,0.0,96,0.00,,SKC,0.00,0.00,VWS V14.01,2013-08-11 10:18:00,
2013-08-11 06:19:00,72.7,71.5,30.07,NE,47,0.0,0.0,96,0.00,,SKC,0.00,0.00,VWS V14.01,2013-08-11 10:19:00,
2013-08-11 06:22:00,72.7,71.8,30.07,NE,48,0.0,0.0,97,0.00,,SKC,0.00,0.00,VWS V14.01,2013-08-11 10:22:00,
2013-08-11 06:23:00,72.7,71.8,30.07,NE,47,0.0,0.0,97,0.00,,SKC,0.00,0.00,VWS V14.01,2013-08-11 10:23:00,
2013-08-11 06:24:00,72.7,71.8,30.07,NE,47,0.0,0.0,97,0.00,,SKC,0.00,0.00,VWS V14.01,2013-08-11 10:24:00,
2013-08-11 06:27:00,72.7,71.8,30.07,NE,47,0.0,0.0,97,0.00,,SKC,0.00,0.00,VWS V14.01,2013-08-11 10:27:00,
2013-08-11 06:28:00,72.7,71.8,30.07,NE,47,0.0,0.0,97,0.00,,SKC,0.00,0.00,VWS V14.01,2013-08-11 10:28:00,
2013-08-11 06:29:00,72.7,71.8,30.07,NE,47,0.0,0.0,97,0.00,,SKC,0.00,0.00,VWS V14.01,2013-08-11 10:29:00,
2013-08-11 06:32:00,72.7,71.8,30.07,NE,48,0.0,0.0,97,0.00,,SKC,0.00,0.00,VWS V14.01,2013-08-11 10:32:00,
2013-08-11 06:33:00,72.6,71.7,30.07,NE,47,0.0,0.0,97,0.00,,SKC,0.00,0.00,VWS V14.01,2013-08-11 10:33:00,
2013-08-11 06:34:00,72.6,71.7,30.07,NE,47,0.0,0.0,97,0.00,,SKC,0.00,0.00,VWS V14.01,2013-08-11 10:34:00,
2013-08-11 06:38:00,72.6,71.7,30.07,NE,47,0.0,0.0,97,0.00,,SKC,0.00,0.00,VWS V14.01,2013-08-11 10:38:00,
2013-08-11 06:39:00,72.6,71.7,30.07,NE,47,0.0,0.0,97,0.00,,SKC,0.00,0.00,VWS V14.01,2013-08-11 10:39:00,
2013-08-11 06:43:00,72.6,71.7,30.07,NE,47,0.0,0.0,97,0.00,,SKC,0.00,0.00,VWS V14.01,2013-08-11 10:43:00,
2013-08-11 06:44:00,72.6,71.7,30.07,NE,47,0.0,0.0,97,0.00,,SKC,0.00,5.00,VWS V14.01,2013-08-11 10:44:00,
2013-08-11 06:45:00,72.6,71.7,30.07,NE,48,0.0,0.0,97,0.00,,SKC,0.00,5.00,VWS V14.01,2013-08-11 10:45:00,
2013-08-11 06:48:00,72.6,71.7,30.07,NE,47,0.0,0.0,97,0.00,,SKC,0.00,5.00,VWS V14.01,2013-08-11 10:48:00,
2013-08-11 06:50:00,72.6,71.7,30.07,NE,47,0.0,0.0,97,0.00,,SKC,0.00,5.00,VWS V14.01,2013-08-11 10:50:00,
2013-08-11 06:51:00,72.6,71.7,30.07,NE,47,0.0,0.0,97,0.00,,SKC,0.00,5.00,VWS V14.01,2013-08-11 10:51:00,
2013-08-11 06:53:00,72.6,71.7,30.07,NE,47,0.0,0.0,97,0.00,,SKC,0.00,5.00,VWS V14.01,2013-08-11 10:53:00,
2013-08-11 06:55:00,72.6,71.7,30.07,NE,47,0.0,0.0,97,0.00,,SKC,0.00,5.00,VWS V14.01,2013-08-11 10:55:00,
2013-08-11 06:56:00,72.6,71.7,30.07,NE,47,0.0,0.0,97,0.00,,SKC,0.00,5.00,VWS V14.01,2013-08-11 10:56:00,
2013-08-11 06:57:00,72.6,71.7,30.07,NE,47,0.0,0.0,97,0.00,,SKC,0.00,7.00,VWS V14.01,2013-08-11 10:57:00,
2013-08-11 06:59:00,72.5,71.6,30.07,NE,47,0.0,0.0,97,0.00,,SKC,0.00,7.00,VWS V14.01,2013-08-11 10:59:00,
2013-08-11 07:01:00,72.5,71.6,30.07,NE,47,0.0,0.0,97,0.00,,SKC,0.00,7.00,VWS V14.01,2013-08-11 11:01:00,
2013-08-11 07:02:00,72.5,71.6,30.07,NE,47,0.0,0.0,97,0.00,,SKC,0.00,9.00,VWS V14.01,2013-08-11 11:02:00,
2013-08-11 07:05:00,72.5,71.6,30.08,NE,47,0.0,0.0,97,0.00,,SKC,0.00,11.00,VWS V14.01,2013-08-11 11:05:00,
2013-08-11 07:06:00,72.5,71.6,30.08,NE,47,0.0,0.0,97,0.00,,SKC,0.00,11.00,VWS V14.01,2013-08-11 11:06:00,
2013-08-11 07:08:00,72.5,71.6,30.08,NE,48,0.0,1.0,97,0.00,,SKC,0.00,11.00,VWS V14.01,2013-08-11 11:08:00,
2013-08-11 07:11:00,72.5,71.6,30.08,NE,47,1.0,1.0,97,0.00,,SKC,0.00,12.00,VWS V14.01,2013-08-11 11:11:00,
2013-08-11 07:12:00,72.5,71.6,30.08,NE,47,0.0,1.0,97,0.00,,SKC,0.00,12.00,VWS V14.01,2013-08-11 11:12:00,
2013-08-11 07:13:00,72.5,71.6,30.08,NE,47,0.0,1.0,97,0.00,,SKC,0.00,14.00,VWS V14.01,2013-08-11 11:13:00,
2013-08-11 07:16:00,72.5,71.6,30.08,NE,47,0.0,1.0,97,0.00,,SKC,0.00,19.00,VWS V14.01,2013-08-11 11:16:00,
2013-08-11 07:17:00,72.5,71.6,30.08,NE,47,0.0,1.0,97,0.00,,SKC,0.00,19.00,VWS V14.01,2013-08-11 11:17:00,
2013-08-11 07:18:00,72.5,71.6,30.08,NE,47,0.0,1.0,97,0.00,,SKC,0.00,19.00,VWS V14.01,2013-08-11 11:18:00,
2013-08-11 07:21:00,72.5,71.6,30.08,NE,47,0.0,1.0,97,0.00,,SKC,0.00,23.00,VWS V14.01,2013-08-11 11:21:00,
2013-08-11 07:22:00,72.5,71.6,30.08,NE,47,0.0,1.0,97,0.00,,SKC,0.00,25.00,VWS V14.01,2013-08-11 11:22:00,
2013-08-11 07:23:00,72.5,71.6,30.08,NE,47,0.0,1.0,97,0.00,,SKC,0.00,26.00,VWS V14.01,2013-08-11 11:23:00,
2013-08-11 07:26:00,72.5,71.6,30.08,NE,47,0.0,1.0,97,0.00,,SKC,0.00,25.00,VWS V14.01,2013-08-11 11:26:00,
2013-08-11 07:27:00,72.5,71.6,30.08,NE,47,0.0,1.0,97,0.00,,SKC,0.00,25.00,VWS V14.01,2013-08-11 11:27:00,
2013-08-11 07:28:00,72.6,71.7,30.08,NE,47,0.0,1.0,97,0.00,,SKC,0.00,26.00,VWS V14.01,2013-08-11 11:28:00,
2013-08-11 07:29:00,72.6,71.7,30.08,NE,47,0.0,1.0,97,0.00,,SKC,0.00,26.00,VWS V14.01,2013-08-11 11:29:00,
2013-08-11 07:32:00,72.6,71.7,30.08,NE,47,0.0,0.0,97,0.00,,SKC,0.00,26.00,VWS V14.01,2013-08-11 11:32:00,
2013-08-11 07:33:00,72.6,71.7,30.08,NE,47,0.0,0.0,97,0.00,,SKC,0.00,25.00,VWS V14.01,2013-08-11 11:33:00,
2013-08-11 07:34:00,72.6,71.7,30.08,NE,47,1.0,1.0,97,0.00,,SKC,0.00,25.00,VWS V14.01,2013-08-11 11:34:00,
2013-08-11 07:37:00,72.6,71.7,30.08,NE,47,0.0,1.0,97,0.00,,SKC,0.00,21.00,VWS V14.01,2013-08-11 11:37:00,
2013-08-11 07:39:00,72.6,71.7,30.08,NE,47,0.0,1.0,97,0.00,,SKC,0.00,21.00,VWS V14.01,2013-08-11 11:39:00,
2013-08-11 07:40:00,72.7,71.8,30.08,NE,47,0.0,1.0,97,0.00,,SKC,0.00,21.00,VWS V14.01,2013-08-11 11:40:00,
2013-08-11 07:42:00,72.7,71.8,30.08,NE,47,1.0,1.0,97,0.00,,SKC,0.00,21.00,VWS V14.01,2013-08-11 11:42:00,
2013-08-11 07:43:00,72.7,71.8,30.08,NE,47,0.0,1.0,97,0.00,,SKC,0.00,21.00,VWS V14.01,2013-08-11 11:43:00,
2013-08-11 07:44:00,72.7,71.8,30.08,NE,48,0.0,1.0,97,0.00,,SKC,0.00,23.00,VWS V14.01,2013-08-11 11:44:00,
2013-08-11 07:47:00,72.7,71.8,30.08,NE,47,0.0,1.0,97,0.00,,SKC,0.00,23.00,VWS V14.01,2013-08-11 11:47:00,
2013-08-11 07:48:00,72.8,71.9,30.08,NE,47,0.0,1.0,97,0.00,,SKC,0.00,23.00,VWS V14.01,2013-08-11 11:48:00,
2013-08-11 07:49:00,72.8,71.9,30.08,NE,47,0.0,1.0,97,0.00,,SKC,0.00,23.00,VWS V14.01,2013-08-11 11:49:00,
2013-08-11 07:52:00,72.8,71.9,30.08,NE,47,0.0,1.0,97,0.00,,SKC,0.00,28.00,VWS V14.01,2013-08-11 11:52:00,
2013-08-11 07:53:00,72.8,71.9,30.08,NE,47,1.0,1.0,97,0.00,,SKC,0.00,30.00,VWS V14.01,2013-08-11 11:53:00,
2013-08-11 07:54:00,72.8,71.9,30.08,NE,47,0.0,1.0,97,0.00,,SKC,0.00,32.00,VWS V14.01,2013-08-11 11:54:00,
2013-08-11 07:58:00,72.8,71.9,30.08,NE,47,0.0,1.0,97,0.00,,SKC,0.00,46.00,VWS V14.01,2013-08-11 11:58:00,
2013-08-11 07:59:00,72.8,71.9,30.08,NE,47,1.0,1.0,97,0.00,,SKC,0.00,56.00,VWS V14.01,2013-08-11 11:59:00,
2013-08-11 08:03:00,72.8,71.6,30.08,NE,47,0.0,1.0,96,0.00,,SKC,0.00,77.00,VWS V14.01,2013-08-11 12:03:00,
2013-08-11 08:04:00,72.7,71.5,30.08,NE,47,0.0,1.0,96,0.00,,SKC,0.00,69.00,VWS V14.01,2013-08-11 12:04:00,
2013-08-11 08:08:00,72.8,71.9,30.08,NE,47,0.0,1.0,97,0.00,,SKC,0.00,53.00,VWS V14.01,2013-08-11 12:08:00,
2013-08-11 08:09:00,72.8,71.9,30.08,NE,48,0.0,1.0,97,0.00,,SKC,0.00,53.00,VWS V14.01,2013-08-11 12:09:00,
2013-08-11 08:10:00,72.9,72.0,30.08,NE,47,0.0,1.0,97,0.00,,SKC,0.00,40.00,VWS V14.01,2013-08-11 12:10:00,
2013-08-11 08:13:00,73.0,72.1,30.08,NE,47,0.0,1.0,97,0.00,,SKC,0.00,33.00,VWS V14.01,2013-08-11 12:13:00,
2013-08-11 08:14:00,73.0,72.1,30.08,NE,47,0.0,1.0,97,0.00,,SKC,0.00,33.00,VWS V14.01,2013-08-11 12:14:00,
2013-08-11 08:15:00,73.0,72.1,30.08,NE,47,0.0,1.0,97,0.00,,SKC,0.00,33.00,VWS V14.01,2013-08-11 12:15:00,
2013-08-11 08:19:00,73.0,71.8,30.08,NE,47,2.0,3.0,96,0.00,,SKC,0.00,51.00,VWS V14.01,2013-08-11 12:19:00,
2013-08-11 08:20:00,73.0,71.8,30.08,NE,47,2.0,3.0,96,0.00,,SKC,0.00,51.00,VWS V14.01,2013-08-11 12:20:00,
2013-08-11 08:22:00,73.0,71.8,30.08,NE,47,0.0,3.0,96,0.00,,SKC,0.00,65.00,VWS V14.01,2013-08-11 12:22:00,
2013-08-11 08:24:00,73.0,71.8,30.08,NE,47,0.0,3.0,96,0.00,,SKC,0.00,70.00,VWS V14.01,2013-08-11 12:24:00,
2013-08-11 08:25:00,73.0,71.8,30.08,NE,47,0.0,3.0,96,0.00,,SKC,0.00,70.00,VWS V14.01,2013-08-11 12:25:00,
2013-08-11 08:26:00,73.0,71.8,30.08,NE,47,0.0,3.0,96,0.00,,SKC,0.00,62.00,VWS V14.01,2013-08-11 12:26:00,
2013-08-11 08:27:00,73.0,71.8,30.08,NE,47,0.0,3.0,96,0.00,,SKC,0.00,65.00,VWS V14.01,2013-08-11 12:27:00,
2013-08-11 08:29:00,73.0,71.8,30.08,NE,47,0.0,3.0,96,0.00,,SKC,0.00,109.00,VWS V14.01,2013-08-11 12:29:00,
2013-08-11 08:30:00,73.0,71.8,30.08,NE,47,0.0,3.0,96,0.00,,SKC,0.00,109.00,VWS V14.01,2013-08-11 12:30:00,
2013-08-11 08:31:00,73.1,71.9,30.08,NE,47,0.0,0.0,96,0.00,,SKC,0.00,132.00,VWS V14.01,2013-08-11 12:31:00,
2013-08-11 08:32:00,73.1,71.9,30.08,NE,47,0.0,0.0,96,0.00,,SKC,0.00,146.00,VWS V14.01,2013-08-11 12:32:00,
2013-08-11 08:35:00,73.2,72.0,30.08,NE,47,0.0,0.0,96,0.00,,SKC,0.00,162.00,VWS V14.01,2013-08-11 12:35:00,
2013-08-11 08:36:00,73.2,72.0,30.09,NE,47,0.0,0.0,96,0.00,,SKC,0.00,130.00,VWS V14.01,2013-08-11 12:36:00,
2013-08-11 08:38:00,73.4,72.2,30.09,NE,47,0.0,0.0,96,0.00,,SKC,0.00,72.00,VWS V14.01,2013-08-11 12:38:00,
2013-08-11 08:40:00,73.5,72.3,30.09,NE,47,0.0,0.0,96,0.00,,SKC,0.00,53.00,VWS V14.01,2013-08-11 12:40:00,
2013-08-11 08:41:00,73.6,72.4,30.09,NE,47,0.0,0.0,96,0.00,,SKC,0.00,44.00,VWS V14.01,2013-08-11 12:41:00,
2013-08-11 08:43:00,73.6,72.4,30.09,NE,48,0.0,0.0,96,0.00,,SKC,0.00,44.00,VWS V14.01,2013-08-11 12:43:00,
2013-08-11 08:44:00,73.7,72.5,30.09,NE,47,0.0,0.0,96,0.00,,SKC,0.00,47.00,VWS V14.01,2013-08-11 12:44:00,
2013-08-11 08:45:00,73.7,72.5,30.09,NE,47,0.0,0.0,96,0.00,,SKC,0.00,51.00,VWS V14.01,2013-08-11 12:45:00,
2013-08-11 08:46:00,73.7,72.5,30.09,NE,47,0.0,0.0,96,0.00,,SKC,0.00,56.00,VWS V14.01,2013-08-11 12:46:00,
2013-08-11 08:48:00,73.7,72.5,30.09,NE,47,0.0,0.0,96,0.00,,SKC,0.00,70.00,VWS V14.01,2013-08-11 12:48:00,
2013-08-11 08:50:00,73.8,72.6,30.09,NE,47,0.0,0.0,96,0.00,,SKC,0.00,95.00,VWS V14.01,2013-08-11 12:50:00,
2013-08-11 08:51:00,73.8,72.6,30.09,NE,47,0.0,0.0,96,0.00,,SKC,0.00,100.00,VWS V14.01,2013-08-11 12:51:00,
2013-08-11 08:53:00,73.8,72.3,30.09,NE,47,0.0,0.0,95,0.00,,SKC,0.00,98.00,VWS V14.01,2013-08-11 12:53:00,
2013-08-11 08:56:00,73.9,72.4,30.09,NE,47,0.0,0.0,95,0.00,,SKC,0.00,83.00,VWS V14.01,2013-08-11 12:56:00,
2013-08-11 08:58:00,73.9,72.4,30.09,NE,47,0.0,0.0,95,0.00,,SKC,0.00,77.00,VWS V14.01,2013-08-11 12:58:00,
2013-08-11 09:01:00,74.0,72.5,30.09,NE,47,0.0,0.0,95,0.00,,SKC,0.00,98.00,VWS V14.01,2013-08-11 13:01:00,
2013-08-11 09:02:00,74.0,72.5,30.09,NE,48,0.0,0.0,95,0.00,,SKC,0.00,107.00,VWS V14.01,2013-08-11 13:02:00,
2013-08-11 09:04:00,74.0,72.5,30.09,NE,48,0.0,0.0,95,0.00,,SKC,0.00,121.00,VWS V14.01,2013-08-11 13:04:00,
2013-08-11 09:06:00,74.2,72.7,30.09,NE,47,0.0,0.0,95,0.00,,SKC,0.00,123.00,VWS V14.01,2013-08-11 13:06:00,
2013-08-11 09:07:00,74.2,72.7,30.09,NE,48,0.0,0.0,95,0.00,,SKC,0.00,123.00,VWS V14.01,2013-08-11 13:07:00,
2013-08-11 09:09:00,74.3,72.8,30.09,NE,47,0.0,0.0,95,0.00,,SKC,0.00,134.00,VWS V14.01,2013-08-11 13:09:00,
2013-08-11 09:11:00,74.4,72.9,30.09,NE,47,0.0,0.0,95,0.00,,SKC,0.00,114.00,VWS V14.01,2013-08-11 13:11:00,
2013-08-11 09:12:00,74.4,72.9,30.09,NE,47,0.0,0.0,95,0.00,,SKC,0.00,114.00,VWS V14.01,2013-08-11 13:12:00,
2013-08-11 09:15:00,74.4,72.6,30.09,NE,47,0.0,1.0,94,0.00,,SKC,0.00,127.00,VWS V14.01,2013-08-11 13:15:00,
2013-08-11 09:17:00,74.4,72.6,30.09,NE,47,0.0,1.0,94,0.00,,SKC,0.00,139.00,VWS V14.01,2013-08-11 13:17:00,
2013-08-11 09:20:00,74.5,72.7,30.09,NE,47,2.0,3.0,94,0.00,,SKC,0.00,169.00,VWS V14.01,2013-08-11 13:20:00,
2013-08-11 09:22:00,74.5,72.7,30.09,NE,47,0.0,3.0,94,0.00,,SKC,0.00,160.00,VWS V14.01,2013-08-11 13:22:00,
2013-08-11 09:23:00,74.5,72.7,30.09,NE,47,0.0,3.0,94,0.00,,SKC,0.00,155.00,VWS V14.01,2013-08-11 13:23:00,
2013-08-11 09:25:00,74.6,72.8,30.09,NE,47,1.0,3.0,94,0.00,,SKC,0.00,144.00,VWS V14.01,2013-08-11 13:25:00,
2013-08-11 09:27:00,74.7,72.9,30.09,NE,47,1.0,3.0,94,0.00,,SKC,0.00,144.00,VWS V14.01,2013-08-11 13:27:00,
2013-08-11 09:28:00,74.6,72.8,30.09,NE,47,0.0,3.0,94,0.00,,SKC,0.00,162.00,VWS V14.01,2013-08-11 13:28:00,
2013-08-11 09:31:00,74.8,73.0,30.09,NE,47,2.0,3.0,94,0.00,,SKC,0.00,234.00,VWS V14.01,2013-08-11 13:31:00,
2013-08-11 09:33:00,74.8,73.0,30.09,NE,47,1.0,3.0,94,0.00,,SKC,0.00,257.00,VWS V14.01,2013-08-11 13:33:00,
2013-08-11 09:34:00,74.8,73.0,30.09,NE,47,2.0,3.0,94,0.00,,SKC,0.00,214.00,VWS V14.01,2013-08-11 13:34:00,
2013-08-11 09:36:00,74.9,73.1,30.09,NE,48,1.0,3.0,94,0.00,,SKC,0.00,193.00,VWS V14.01,2013-08-11 13:36:00,
2013-08-11 09:38:00,75.0,73.2,30.09,NE,48,0.0,3.0,94,0.00,,SKC,0.00,220.00,VWS V14.01,2013-08-11 13:38:00,
2013-08-11 09:39:00,75.0,72.8,30.09,NE,48,0.0,3.0,93,0.00,,SKC,0.00,225.00,VWS V14.01,2013-08-11 13:39:00,
2013-08-11 09:44:00,75.3,73.1,30.09,NE,48,1.0,3.0,93,0.00,,SKC,0.00,360.00,VWS V14.01,2013-08-11 13:44:00,
2013-08-11 09:49:00,76.8,74.0,30.08,NE,48,0.0,3.0,91,0.00,,SKC,0.00,628.00,VWS V14.01,2013-08-11 13:49:00,
2013-08-11 09:50:00,77.2,74.4,30.08,NE,48,1.0,3.0,91,0.00,,SKC,0.00,628.00,VWS V14.01,2013-08-11 13:50:00,
2013-08-11 09:54:00,78.3,74.8,30.09,NE,48,1.0,3.0,89,0.00,,SKC,0.00,369.00,VWS V14.01,2013-08-11 13:54:00,
2013-08-11 09:55:00,78.4,74.2,30.09,NE,48,0.0,3.0,87,0.00,,SKC,0.00,369.00,VWS V14.01,2013-08-11 13:55:00,
2013-08-11 09:59:00,78.2,74.0,30.09,ESE,117,3.0,4.0,87,0.00,,SKC,0.00,617.00,VWS V14.01,2013-08-11 13:59:00,
2013-08-11 10:00:00,78.2,74.0,30.09,ESE,117,2.0,4.0,87,0.00,,SKC,0.00,617.00,VWS V14.01,2013-08-11 14:00:00,
2013-08-11 10:01:00,78.1,73.6,30.09,ESE,117,0.0,0.0,86,0.00,,SKC,0.00,466.00,VWS V14.01,2013-08-11 14:01:00,
2013-08-11 10:05:00,78.1,73.6,30.09,ESE,118,0.0,1.0,86,0.00,,SKC,0.00,424.00,VWS V14.01,2013-08-11 14:05:00,
2013-08-11 10:06:00,78.1,73.6,30.09,ESE,118,1.0,1.0,86,0.00,,SKC,0.00,424.00,VWS V14.01,2013-08-11 14:06:00,
2013-08-11 10:10:00,80.0,74.7,30.09,East,88,0.0,2.0,84,0.00,,SKC,0.00,209.00,VWS V14.01,2013-08-11 14:10:00,
2013-08-11 10:11:00,80.2,74.9,30.09,East,88,0.0,2.0,84,0.00,,SKC,0.00,202.00,VWS V14.01,2013-08-11 14:11:00,
2013-08-11 10:15:00,80.1,73.8,30.08,East,88,2.0,3.0,81,0.00,,SKC,0.00,265.00,VWS V14.01,2013-08-11 14:15:00,
2013-08-11 10:16:00,80.0,73.7,30.08,East,88,2.0,3.0,81,0.00,,SKC,0.00,313.00,VWS V14.01,2013-08-11 14:16:00,
2013-08-11 10:17:00,79.8,73.4,30.08,East,87,0.0,3.0,81,0.00,,SKC,0.00,313.00,VWS V14.01,2013-08-11 14:17:00,
2013-08-11 10:20:00,79.7,74.1,30.08,East,87,0.0,3.0,83,0.00,,SKC,0.00,313.00,VWS V14.01,2013-08-11 14:20:00,
2013-08-11 10:22:00,79.8,74.2,30.08,East,94,1.0,3.0,83,0.00,,SKC,0.00,313.00,VWS V14.01,2013-08-11 14:22:00,
2013-08-11 10:24:00,79.8,74.9,30.08,East,87,3.0,3.0,85,0.00,,SKC,0.00,884.00,VWS V14.01,2013-08-11 14:24:00,
2013-08-11 10:27:00,80.2,74.6,30.08,East,84,1.0,5.0,83,0.00,,SKC,0.00,255.00,VWS V14.01,2013-08-11 14:27:00,
2013-08-11 10:29:00,80.4,73.7,30.08,East,82,0.0,5.0,80,0.00,,SKC,0.00,223.00,VWS V14.01,2013-08-11 14:29:00,
2013-08-11 10:32:00,80.2,73.1,30.08,East,84,0.0,1.0,79,0.00,,SKC,0.00,216.00,VWS V14.01,2013-08-11 14:32:00,
2013-08-11 10:35:00,80.2,73.8,30.08,East,84,0.0,1.0,81,0.00,,SKC,0.00,237.00,VWS V14.01,2013-08-11 14:35:00,
2013-08-11 10:37:00,80.2,74.2,30.08,ESE,122,3.0,3.0,82,0.00,,SKC,0.00,209.00,VWS V14.01,2013-08-11 14:37:00,
2013-08-11 10:38:00,80.1,74.1,30.08,SE,129,0.0,3.0,82,0.00,,SKC,0.00,209.00,VWS V14.01,2013-08-11 14:38:00,
2013-08-11 10:42:00,78.6,73.0,30.08,SSE,168,0.0,3.0,83,0.00,,SKC,0.00,265.00,VWS V14.01,2013-08-11 14:42:00,
2013-08-11 10:43:00,78.4,73.2,30.09,SSE,168,0.0,3.0,84,0.00,,SKC,0.00,264.00,VWS V14.01,2013-08-11 14:43:00,
2013-08-11 10:44:00,78.4,73.2,30.09,SSE,168,0.0,3.0,84,0.00,,SKC,0.00,262.00,VWS V14.01,2013-08-11 14:44:00,
2013-08-11 10:48:00,78.2,73.0,30.09,SSE,168,0.0,3.0,84,0.00,,SKC,0.00,306.00,VWS V14.01,2013-08-11 14:48:00,
2013-08-11 10:49:00,78.1,72.9,30.09,SSE,168,1.0,3.0,84,0.00,,SKC,0.00,271.00,VWS V14.01,2013-08-11 14:49:00,
2013-08-11 10:53:00,77.9,72.7,30.09,South,169,1.0,3.0,84,0.00,,SKC,0.00,239.00,VWS V14.01,2013-08-11 14:53:00,
2013-08-11 10:55:00,77.9,72.7,30.09,South,169,0.0,3.0,84,0.00,,SKC,0.00,211.00,VWS V14.01,2013-08-11 14:55:00,
2013-08-11 10:59:00,78.0,73.1,30.09,South,173,1.0,3.0,85,0.00,,SKC,0.00,206.00,VWS V14.01,2013-08-11 14:59:00,
2013-08-11 11:02:00,78.0,73.5,30.08,South,173,0.0,0.0,86,0.00,,SKC,0.00,262.00,VWS V14.01,2013-08-11 15:02:00,
2013-08-11 11:04:00,78.1,73.2,30.09,South,173,1.0,3.0,85,0.00,,SKC,0.00,330.00,VWS V14.01,2013-08-11 15:04:00,
2013-08-11 11:07:00,78.4,73.5,30.08,SSE,161,2.0,3.0,85,0.00,,SKC,0.00,279.00,VWS V14.01,2013-08-11 15:07:00,
2013-08-11 11:09:00,78.7,74.2,30.08,SSE,148,2.0,3.0,86,0.00,,SKC,0.00,708.00,VWS V14.01,2013-08-11 15:09:00,
2013-08-11 11:10:00,78.8,73.9,30.08,SSE,148,2.0,3.0,85,0.00,,SKC,0.00,708.00,VWS V14.01,2013-08-11 15:10:00,
2013-08-11 11:12:00,79.0,73.8,30.08,SE,144,2.0,4.0,84,0.00,,SKC,0.00,362.00,VWS V14.01,2013-08-11 15:12:00,
2013-08-11 11:15:00,79.2,73.6,30.08,SE,143,1.0,4.0,83,0.00,,SKC,0.00,388.00,VWS V14.01,2013-08-11 15:15:00,
2013-08-11 11:17:00,79.5,73.9,30.08,SE,142,1.0,4.0,83,0.00,,SKC,0.00,388.00,VWS V14.01,2013-08-11 15:17:00,
2013-08-11 11:20:00,79.9,74.3,30.08,SE,139,3.0,4.0,83,0.00,,SKC,0.00,367.00,VWS V14.01,2013-08-11 15:20:00,
2013-08-11 11:21:00,79.9,73.9,30.08,SE,138,2.0,4.0,82,0.00,,SKC,0.00,367.00,VWS V14.01,2013-08-11 15:21:00,
2013-08-11 11:22:00,79.9,73.9,30.08,SE,138,2.0,4.0,82,0.00,,SKC,0.00,612.00,VWS V14.01,2013-08-11 15:22:00,
2013-08-11 11:23:00,80.0,74.0,30.08,SE,139,3.0,4.0,82,0.00,,SKC,0.00,563.00,VWS V14.01,2013-08-11 15:23:00,
2013-08-11 11:26:00,79.9,73.6,30.08,SE,136,1.0,5.0,81,0.00,,SKC,0.00,712.00,VWS V14.01,2013-08-11 15:26:00,
2013-08-11 11:27:00,80.0,74.0,30.07,SE,136,0.0,5.0,82,0.00,,SKC,0.00,388.00,VWS V14.01,2013-08-11 15:27:00,
2013-08-11 11:28:00,80.1,74.1,30.07,SE,136,1.0,5.0,82,0.00,,SKC,0.00,410.00,VWS V14.01,2013-08-11 15:28:00,
2013-08-11 11:31:00,80.6,73.9,30.07,SE,136,0.0,0.0,80,0.00,,SKC,0.00,587.00,VWS V14.01,2013-08-11 15:31:00,
2013-08-11 11:33:00,80.7,74.3,30.07,SE,136,0.0,0.0,81,0.00,,SKC,0.00,587.00,VWS V14.01,2013-08-11 15:33:00,
2013-08-11 11:37:00,80.8,73.3,30.07,South,191,5.0,5.0,78,0.00,,SKC,0.00,1023.00,VWS V14.01,2013-08-11 15:37:00,
2013-08-11 11:38:00,80.5,73.0,30.07,SSW,193,2.0,5.0,78,0.00,,SKC,0.00,1023.00,VWS V14.01,2013-08-11 15:38:00,
2013-08-11 11:42:00,80.8,74.1,30.07,SE,136,1.0,5.0,80,0.00,,SKC,0.00,629.00,VWS V14.01,2013-08-11 15:42:00,
2013-08-11 11:44:00,81.0,73.9,30.07,SE,140,0.0,5.0,79,0.00,,SKC,0.00,629.00,VWS V14.01,2013-08-11 15:44:00,
2013-08-11 11:47:00,81.6,74.1,30.07,SE,139,2.0,5.0,78,0.00,,SKC,0.00,629.00,VWS V14.01,2013-08-11 15:47:00,
2013-08-11 11:48:00,81.7,73.8,30.07,SE,138,0.0,5.0,77,0.00,,SKC,0.00,629.00,VWS V14.01,2013-08-11 15:48:00,
2013-08-11 11:49:00,81.9,74.4,30.06,SE,138,0.0,5.0,78,0.00,,SKC,0.00,629.00,VWS V14.01,2013-08-11 15:49:00,
2013-08-11 11:50:00,82.3,74.8,30.06,SE,138,0.0,5.0,78,0.00,,SKC,0.00,629.00,VWS V14.01,2013-08-11 15:50:00,
2013-08-11 11:52:00,83.2,74.8,30.06,ESE,123,1.0,5.0,76,0.00,,SKC,0.00,629.00,VWS V14.01,2013-08-11 15:52:00,
2013-08-11 11:54:00,83.1,73.1,30.06,NW,307,1.0,5.0,72,0.00,,SKC,0.00,893.00,VWS V14.01,2013-08-11 15:54:00,
2013-08-11 11:55:00,83.1,73.1,30.06,NW,307,0.0,5.0,72,0.00,,SKC,0.00,882.00,VWS V14.01,2013-08-11 15:55:00,
2013-08-11 11:58:00,83.4,74.2,30.06,NNW,332,5.0,7.0,74,0.00,,SKC,0.00,881.00,VWS V14.01,2013-08-11 15:58:00,
2013-08-11 11:59:00,83.6,74.4,30.06,NNW,346,5.0,7.0,74,0.00,,SKC,0.00,881.00,VWS V14.01,2013-08-11 15:59:00,
2013-08-11 12:00:00,83.7,74.1,30.06,NNW,344,5.0,8.0,73,0.00,,SKC,0.00,881.00,VWS V14.01,2013-08-11 16:00:00,
2013-08-11 12:03:00,83.6,72.8,30.06,WNW,299,2.0,8.0,70,0.00,,SKC,0.00,343.00,VWS V14.01,2013-08-11 16:03:00,
2013-08-11 12:04:00,83.6,72.8,30.06,WNW,301,4.0,8.0,70,0.00,,SKC,0.00,330.00,VWS V14.01,2013-08-11 16:04:00,
2013-08-11 12:06:00,83.6,72.8,30.06,West,273,1.0,8.0,70,0.00,,SKC,0.00,330.00,VWS V14.01,2013-08-11 16:06:00,
2013-08-11 12:08:00,83.0,73.1,30.06,NW,315,0.0,8.0,72,0.00,,SKC,0.00,237.00,VWS V14.01,2013-08-11 16:08:00,
2013-08-11 12:09:00,82.8,72.4,30.06,NW,312,2.0,8.0,71,0.00,,SKC,0.00,234.00,VWS V14.01,2013-08-11 16:09:00,
2013-08-11 12:11:00,82.5,72.2,30.06,NW,313,1.0,8.0,71,0.00,,SKC,0.00,265.00,VWS V14.01,2013-08-11 16:11:00,
2013-08-11 12:14:00,82.1,72.6,30.06,NNW,336,2.0,8.0,73,0.00,,SKC,0.00,272.00,VWS V14.01,2013-08-11 16:14:00,
2013-08-11 12:15:00,82.2,73.5,30.06,NNW,336,0.0,8.0,75,0.00,,SKC,0.00,322.00,VWS V14.01,2013-08-11 16:15:00,
2013-08-11 12:16:00,82.5,73.0,30.06,NNW,336,1.0,8.0,73,0.00,,SKC,0.00,921.00,VWS V14.01,2013-08-11 16:16:00,
2013-08-11 12:17:00,82.5,73.0,30.06,NNW,336,0.0,8.0,73,0.00,,SKC,0.00,912.00,VWS V14.01,2013-08-11 16:17:00,
2013-08-11 12:20:00,83.2,74.1,30.06,NNW,336,0.0,8.0,74,0.00,,SKC,0.00,1025.00,VWS V14.01,2013-08-11 16:20:00,
2013-08-11 12:22:00,83.9,73.9,30.06,SSW,209,6.0,8.0,72,0.00,,SKC,0.00,1034.00,VWS V14.01,2013-08-11 16:22:00,
2013-08-11 12:23:00,83.5,72.7,30.06,SSW,207,2.0,8.0,70,0.00,,SKC,0.00,462.00,VWS V14.01,2013-08-11 16:23:00,
2013-08-11 12:25:00,82.9,73.4,30.06,SSW,207,1.0,8.0,73,0.00,,SKC,0.00,550.00,VWS V14.01,2013-08-11 16:25:00,
2013-08-11 12:27:00,82.7,72.8,30.06,NW,306,3.0,8.0,72,0.00,,SKC,0.00,299.00,VWS V14.01,2013-08-11 16:27:00,
2013-08-11 12:28:00,82.6,71.8,30.06,NW,306,1.0,8.0,70,0.00,,SKC,0.00,299.00,VWS V14.01,2013-08-11 16:28:00,
2013-08-11 12:30:00,82.6,73.1,30.06,WNW,300,1.0,8.0,73,0.00,,SKC,0.00,360.00,VWS V14.01,2013-08-11 16:30:00,
2013-08-11 12:33:00,82.9,72.5,30.06,WNW,303,0.0,2.0,71,0.00,,SKC,0.00,575.00,VWS V14.01,2013-08-11 16:33:00,
2013-08-11 12:34:00,83.2,72.8,30.06,SSW,196,4.0,4.0,71,0.00,,SKC,0.00,575.00,VWS V14.01,2013-08-11 16:34:00,
2013-08-11 12:36:00,83.5,73.5,30.06,West,267,1.0,4.0,72,0.00,,SKC,0.00,833.00,VWS V14.01,2013-08-11 16:36:00,
2013-08-11 12:39:00,83.5,72.7,30.06,WNW,302,1.0,5.0,70,0.00,,SKC,0.00,302.00,VWS V14.01,2013-08-11 16:39:00,
2013-08-11 12:41:00,82.9,71.7,30.06,SSW,212,0.0,5.0,69,0.00,,SKC,0.00,272.00,VWS V14.01,2013-08-11 16:41:00,
2013-08-11 12:44:00,82.3,72.8,30.05,SSE,152,2.0,5.0,73,0.00,,SKC,0.00,383.00,VWS V14.01,2013-08-11 16:44:00,
2013-08-11 12:46:00,82.0,72.9,30.05,SSW,209,3.0,5.0,74,0.00,,SKC,0.00,664.00,VWS V14.01,2013-08-11 16:46:00,
2013-08-11 12:49:00,81.9,73.2,30.05,SW,222,0.0,5.0,75,0.00,,SKC,0.00,1018.00,VWS V14.01,2013-08-11 16:49:00,
2013-08-11 12:50:00,82.0,73.7,30.05,SW,223,2.0,5.0,76,0.00,,SKC,0.00,1018.00,VWS V14.01,2013-08-11 16:50:00,
2013-08-11 12:51:00,82.2,73.9,30.05,SW,221,1.0,5.0,76,0.00,,SKC,0.00,383.00,VWS V14.01,2013-08-11 16:51:00,
2013-08-11 12:55:00,82.0,72.9,30.05,SSW,196,4.0,6.0,74,0.00,,SKC,0.00,390.00,VWS V14.01,2013-08-11 16:55:00,
2013-08-11 12:56:00,81.9,72.4,30.05,SSW,196,1.0,6.0,73,0.00,,SKC,0.00,397.00,VWS V14.01,2013-08-11 16:56:00,
2013-08-11 13:00:00,82.0,72.9,30.04,SE,146,1.0,6.0,74,0.00,,SKC,0.00,443.00,VWS V14.01,2013-08-11 17:00:00,
2013-08-11 13:01:00,82.1,73.0,30.04,SE,146,0.0,6.0,74,0.00,,SKC,0.00,454.00,VWS V14.01,2013-08-11 17:01:00,
2013-08-11 13:02:00,82.3,73.2,30.05,SSE,147,0.0,1.0,74,0.00,,SKC,0.00,482.00,VWS V14.01,2013-08-11 17:02:00,
2013-08-11 13:05:00,84.1,74.1,30.05,SE,144,0.0,1.0,72,0.00,,SKC,0.00,478.00,VWS V14.01,2013-08-11 17:05:00,
2013-08-11 13:07:00,83.8,73.4,30.04,SE,144,0.0,1.0,71,0.00,,SKC,0.00,643.00,VWS V14.01,2013-08-11 17:07:00,
2013-08-11 13:12:00,84.0,72.3,30.04,WNW,293,4.0,8.0,68,0.00,,SKC,0.00,541.00,VWS V14.01,2013-08-11 17:12:00,
2013-08-11 13:13:00,83.9,72.2,30.05,NW,317,4.0,8.0,68,0.00,,SKC,0.00,543.00,VWS V14.01,2013-08-11 17:13:00,
2013-08-11 13:17:00,84.0,73.6,30.04,NW,307,0.0,8.0,71,0.00,,SKC,0.00,682.00,VWS V14.01,2013-08-11 17:17:00,
2013-08-11 13:18:00,84.1,73.3,30.05,NW,307,0.0,8.0,70,0.00,,SKC,0.00,682.00,VWS V14.01,2013-08-11 17:18:00,
2013-08-11 13:22:00,83.9,72.7,30.04,NNW,340,2.0,8.0,69,0.00,,SKC,0.00,508.00,VWS V14.01,2013-08-11 17:22:00,
2013-08-11 13:23:00,84.0,73.6,30.04,NNW,340,1.0,8.0,71,0.00,,SKC,0.00,508.00,VWS V14.01,2013-08-11 17:23:00,
2013-08-11 13:24:00,84.1,73.3,30.04,NNW,336,0.0,8.0,70,0.00,,SKC,0.00,520.00,VWS V14.01,2013-08-11 17:24:00,
2013-08-11 13:28:00,83.8,73.4,30.04,SW,219,0.0,8.0,71,0.00,,SKC,0.00,441.00,VWS V14.01,2013-08-11 17:28:00,
2013-08-11 13:30:00,83.9,73.9,30.04,NW,304,2.0,8.0,72,0.00,,SKC,0.00,448.00,VWS V14.01,2013-08-11 17:30:00,
2013-08-11 13:33:00,84.1,74.1,30.04,NNW,348,3.0,3.0,72,0.00,,SKC,0.00,461.00,VWS V14.01,2013-08-11 17:33:00,
2013-08-11 13:34:00,84.3,74.3,30.04,NNW,348,0.0,4.0,72,0.00,,SKC,0.00,466.00,VWS V14.01,2013-08-11 17:34:00,
2013-08-11 13:35:00,84.4,74.4,30.04,NNW,347,2.0,4.0,72,0.00,,SKC,0.00,555.00,VWS V14.01,2013-08-11 17:35:00,
2013-08-11 13:38:00,84.3,73.0,30.03,NNW,343,1.0,4.0,69,0.00,,SKC,0.00,461.00,VWS V14.01,2013-08-11 17:38:00,
2013-08-11 13:39:00,84.2,72.9,30.03,NNW,338,2.0,4.0,69,0.00,,SKC,0.00,439.00,VWS V14.01,2013-08-11 17:39:00,
2013-08-11 13:40:00,84.2,72.9,30.03,NNW,338,3.0,4.0,69,0.00,,SKC,0.00,439.00,VWS V14.01,2013-08-11 17:40:00,
2013-08-11 13:41:00,84.1,72.4,30.03,NNW,338,3.0,4.0,68,0.00,,SKC,0.00,441.00,VWS V14.01,2013-08-11 17:41:00,
2013-08-11 13:44:00,84.1,73.3,30.03,NNW,327,3.0,4.0,70,0.00,,SKC,0.00,512.00,VWS V14.01,2013-08-11 17:44:00,
2013-08-11 13:45:00,84.2,72.9,30.03,NNW,327,0.0,4.0,69,0.00,,SKC,0.00,522.00,VWS V14.01,2013-08-11 17:45:00,
2013-08-11 13:47:00,84.4,74.0,30.03,NNW,327,0.0,4.0,71,0.00,,SKC,0.00,563.00,VWS V14.01,2013-08-11 17:47:00,
2013-08-11 13:49:00,84.7,74.7,30.03,NNW,327,2.0,4.0,72,0.00,,SKC,0.00,563.00,VWS V14.01,2013-08-11 17:49:00,
2013-08-11 13:50:00,84.8,74.8,30.03,NW,316,3.0,4.0,72,0.00,,SKC,0.00,563.00,VWS V14.01,2013-08-11 17:50:00,
2013-08-11 13:51:00,84.7,74.3,30.03,NNW,344,2.0,4.0,71,0.00,,SKC,0.00,563.00,VWS V14.01,2013-08-11 17:51:00,
2013-08-11 13:52:00,85.2,73.4,30.03,NNW,331,4.0,6.0,68,0.00,,SKC,0.00,1164.00,VWS V14.01,2013-08-11 17:52:00,
2013-08-11 13:54:00,86.0,75.1,30.03,NNW,336,1.0,6.0,70,0.00,,SKC,0.00,1155.00,VWS V14.01,2013-08-11 17:54:00,
2013-08-11 13:55:00,86.9,75.5,30.03,NNW,337,3.0,6.0,69,0.00,,SKC,0.00,1111.00,VWS V14.01,2013-08-11 17:55:00,
2013-08-11 13:56:00,87.4,74.7,30.03,North,9,4.0,6.0,66,0.00,,SKC,0.00,1178.00,VWS V14.01,2013-08-11 17:56:00,
2013-08-11 13:58:00,87.5,73.8,30.03,NNW,333,9.0,9.0,64,0.00,,SKC,0.00,510.00,VWS V14.01,2013-08-11 17:58:00,
2013-08-11 14:00:00,87.2,73.1,30.03,NNW,348,6.0,9.0,63,0.00,,SKC,0.00,503.00,VWS V14.01,2013-08-11 18:00:00,
2013-08-11 14:01:00,86.4,72.3,30.03,NNW,340,0.0,1.0,63,0.00,,SKC,0.00,545.00,VWS V14.01,2013-08-11 18:01:00,
2013-08-11 14:04:00,86.8,73.6,30.03,NNW,338,0.0,1.0,65,0.00,,SKC,0.00,545.00,VWS V14.01,2013-08-11 18:04:00,
2013-08-11 14:05:00,86.5,73.3,30.03,NNW,338,0.0,1.0,65,0.00,,SKC,0.00,1095.00,VWS V14.01,2013-08-11 18:05:00,
2013-08-11 14:06:00,86.5,75.1,30.03,NNW,338,0.0,2.0,69,0.00,,SKC,0.00,1095.00,VWS V14.01,2013-08-11 18:06:00,
2013-08-11 14:09:00,86.5,73.3,30.03,NNW,337,8.0,12.0,65,0.00,,SKC,0.00,388.00,VWS V14.01,2013-08-11 18:09:00,
2013-08-11 14:10:00,86.3,72.7,30.03,WNW,296,3.0,12.0,64,0.00,,SKC,0.00,388.00,VWS V14.01,2013-08-11 18:10:00,
2013-08-11 14:11:00,86.3,72.7,30.03,WNW,296,3.0,12.0,64,0.00,,SKC,0.00,388.00,VWS V14.01,2013-08-11 18:11:00,
2013-08-11 14:12:00,86.0,72.4,30.03,NNW,346,5.0,12.0,64,0.00,,SKC,0.00,1079.00,VWS V14.01,2013-08-11 18:12:00,
2013-08-11 14:14:00,86.1,73.4,30.03,WNW,292,7.0,12.0,66,0.00,,SKC,0.00,1053.00,VWS V14.01,2013-08-11 18:14:00,
2013-08-11 14:16:00,86.1,72.5,30.03,WNW,300,2.0,12.0,64,0.00,,SKC,0.00,1100.00,VWS V14.01,2013-08-11 18:16:00,
2013-08-11 14:17:00,86.4,72.8,30.03,SSW,194,2.0,12.0,64,0.00,,SKC,0.00,1093.00,VWS V14.01,2013-08-11 18:17:00,
2013-08-11 14:19:00,86.4,71.8,30.02,North,355,3.0,12.0,62,0.00,,SKC,0.00,571.00,VWS V14.01,2013-08-11 18:19:00,
2013-08-11 14:21:00,86.3,72.2,30.02,NNW,334,3.0,12.0,63,0.00,,SKC,0.00,1069.00,VWS V14.01,2013-08-11 18:21:00,
2013-08-11 14:23:00,86.1,71.6,30.02,NNW,340,6.0,12.0,62,0.00,,SKC,0.00,937.00,VWS V14.01,2013-08-11 18:23:00,
2013-08-11 14:25:00,85.9,72.8,30.02,NW,326,3.0,12.0,65,0.00,,SKC,0.00,1081.00,VWS V14.01,2013-08-11 18:25:00,
2013-08-11 14:26:00,86.1,73.4,30.02,NW,326,4.0,12.0,66,0.00,,SKC,0.00,1069.00,VWS V14.01,2013-08-11 18:26:00,
2013-08-11 14:27:00,86.3,74.1,30.02,NNW,334,3.0,12.0,67,0.00,,SKC,0.00,1058.00,VWS V14.01,2013-08-11 18:27:00,
2013-08-11 14:28:00,86.7,73.1,30.02,NNW,347,6.0,12.0,64,0.00,,SKC,0.00,1042.00,VWS V14.01,2013-08-11 18:28:00,
2013-08-11 14:31:00,86.6,70.6,30.02,WSW,238,2.0,2.0,59,0.00,,SKC,0.00,788.00,VWS V14.01,2013-08-11 18:31:00,
2013-08-11 14:34:00,86.8,71.8,30.02,WNW,303,6.0,8.0,61,0.00,,SKC,0.00,940.00,VWS V14.01,2013-08-11 18:34:00,
2013-08-11 14:36:00,86.8,72.2,30.02,NNW,347,1.0,8.0,62,0.00,,SKC,0.00,954.00,VWS V14.01,2013-08-11 18:36:00,
2013-08-11 14:37:00,87.2,74.0,30.02,NNW,348,4.0,8.0,65,0.00,,SKC,0.00,954.00,VWS V14.01,2013-08-11 18:37:00,
2013-08-11 14:39:00,87.2,72.1,30.02,WNW,292,3.0,8.0,61,0.00,,SKC,0.00,954.00,VWS V14.01,2013-08-11 18:39:00,
2013-08-11 14:40:00,87.0,71.4,30.02,NNW,336,6.0,8.0,60,0.00,,SKC,0.00,698.00,VWS V14.01,2013-08-11 18:40:00,
2013-08-11 14:41:00,86.9,71.3,30.02,NW,315,3.0,8.0,60,0.00,,SKC,0.00,712.00,VWS V14.01,2013-08-11 18:41:00,
2013-08-11 14:42:00,86.7,71.7,30.02,WNW,294,6.0,8.0,61,0.00,,SKC,0.00,712.00,VWS V14.01,2013-08-11 18:42:00,
2013-08-11 14:45:00,86.4,71.4,30.02,WNW,291,3.0,8.0,61,0.00,,SKC,0.00,956.00,VWS V14.01,2013-08-11 18:45:00,
2013-08-11 14:46:00,86.4,71.4,30.02,NW,307,3.0,8.0,61,0.00,,SKC,0.00,956.00,VWS V14.01,2013-08-11 18:46:00,
2013-08-11 14:47:00,86.3,71.3,30.02,NNW,327,1.0,8.0,61,0.00,,SKC,0.00,956.00,VWS V14.01,2013-08-11 18:47:00,
2013-08-11 14:51:00,86.8,71.8,30.02,NW,312,5.0,8.0,61,0.00,,SKC,0.00,912.00,VWS V14.01,2013-08-11 18:51:00,
2013-08-11 14:52:00,86.9,70.9,30.02,WNW,296,4.0,8.0,59,0.00,,SKC,0.00,819.00,VWS V14.01,2013-08-11 18:52:00,
2013-08-11 14:56:00,86.7,73.1,30.02,NW,310,5.0,8.0,64,0.00,,SKC,0.00,888.00,VWS V14.01,2013-08-11 18:56:00,
2013-08-11 14:57:00,86.7,71.7,30.02,NNW,328,0.0,8.0,61,0.00,,SKC,0.00,895.00,VWS V14.01,2013-08-11 18:57:00,
2013-08-11 14:59:00,87.1,72.0,30.02,SW,218,0.0,8.0,61,0.00,,SKC,0.00,875.00,VWS V14.01,2013-08-11 18:59:00,
2013-08-11 15:02:00,87.4,71.8,30.02,NNW,328,4.0,7.0,60,0.00,,SKC,0.00,856.00,VWS V14.01,2013-08-11 19:02:00,
2013-08-11 15:04:00,87.1,71.5,30.02,NW,326,5.0,7.0,60,0.00,,SKC,0.00,842.00,VWS V14.01,2013-08-11 19:04:00,
2013-08-11 15:07:00,86.9,71.8,30.02,NNW,339,6.0,10.0,61,0.00,,SKC,0.00,828.00,VWS V14.01,2013-08-11 19:07:00,
2013-08-11 15:08:00,86.8,72.2,30.01,NNW,331,8.0,10.0,62,0.00,,SKC,0.00,819.00,VWS V14.01,2013-08-11 19:08:00,
2013-08-11 15:09:00,86.8,70.8,30.01,NNW,346,8.0,11.0,59,0.00,,SKC,0.00,819.00,VWS V14.01,2013-08-11 19:09:00,
2013-08-11 15:12:00,86.2,70.7,30.01,NNW,342,11.0,13.0,60,0.00,,SKC,0.00,851.00,VWS V14.01,2013-08-11 19:12:00,
2013-08-11 15:14:00,86.1,71.1,30.01,North,355,5.0,13.0,61,0.00,,SKC,0.00,879.00,VWS V14.01,2013-08-11 19:14:00,
2013-08-11 15:18:00,86.6,71.6,30.01,NNW,330,4.0,13.0,61,0.00,,SKC,0.00,895.00,VWS V14.01,2013-08-11 19:18:00,
2013-08-11 15:19:00,86.6,71.6,30.01,WNW,298,0.0,13.0,61,0.00,,SKC,0.00,912.00,VWS V14.01,2013-08-11 19:19:00,
2013-08-11 15:20:00,86.7,71.7,30.01,WNW,292,9.0,13.0,61,0.00,,SKC,0.00,912.00,VWS V14.01,2013-08-11 19:20:00,
2013-08-11 15:23:00,87.1,73.4,30.01,West,275,1.0,13.0,64,0.00,,SKC,0.00,772.00,VWS V14.01,2013-08-11 19:23:00,
2013-08-11 15:25:00,87.1,72.5,30.00,NNW,346,5.0,13.0,62,0.00,,SKC,0.00,710.00,VWS V14.01,2013-08-11 19:25:00,
2013-08-11 15:26:00,87.1,71.0,30.00,NNW,331,0.0,13.0,59,0.00,,SKC,0.00,710.00,VWS V14.01,2013-08-11 19:26:00,
2013-08-11 15:29:00,87.0,72.4,30.00,West,277,4.0,13.0,62,0.00,,SKC,0.00,482.00,VWS V14.01,2013-08-11 19:29:00,
2013-08-11 15:30:00,86.9,71.3,30.00,NNW,342,2.0,13.0,60,0.00,,SKC,0.00,482.00,VWS V14.01,2013-08-11 19:30:00,
2013-08-11 15:31:00,86.8,72.2,30.00,NW,323,3.0,13.0,62,0.00,,SKC,0.00,441.00,VWS V14.01,2013-08-11 19:31:00,
2013-08-11 15:34:00,86.5,71.5,30.00,NW,314,1.0,7.0,61,0.00,,SKC,0.00,406.00,VWS V14.01,2013-08-11 19:34:00,
2013-08-11 15:35:00,86.4,72.8,30.00,NW,314,0.0,7.0,64,0.00,,SKC,0.00,383.00,VWS V14.01,2013-08-11 19:35:00,
2013-08-11 15:36:00,86.3,71.8,30.00,WNW,294,5.0,7.0,62,0.00,,SKC,0.00,401.00,VWS V14.01,2013-08-11 19:36:00,
2013-08-11 15:37:00,86.3,71.8,30.00,NW,306,1.0,7.0,62,0.00,,SKC,0.00,396.00,VWS V14.01,2013-08-11 19:37:00,
2013-08-11 15:40:00,85.9,71.8,30.00,SSW,208,4.0,7.0,63,0.00,,SKC,0.00,397.00,VWS V14.01,2013-08-11 19:40:00,
2013-08-11 15:41:00,85.5,71.0,30.00,SSW,206,3.0,7.0,62,0.00,,SKC,0.00,383.00,VWS V14.01,2013-08-11 19:41:00,
2013-08-11 15:42:00,85.3,72.7,30.00,SSW,206,1.0,7.0,66,0.00,,SKC,0.00,381.00,VWS V14.01,2013-08-11 19:42:00,
2013-08-11 15:46:00,85.4,71.8,30.00,West,281,4.0,7.0,64,0.00,,SKC,0.00,406.00,VWS V14.01,2013-08-11 19:46:00,
2013-08-11 15:47:00,85.5,71.0,30.00,NNW,347,1.0,7.0,62,0.00,,SKC,0.00,450.00,VWS V14.01,2013-08-11 19:47:00,
2013-08-11 15:48:00,85.7,72.1,30.00,NW,306,2.0,7.0,64,0.00,,SKC,0.00,450.00,VWS V14.01,2013-08-11 19:48:00,
2013-08-11 15:51:00,85.9,72.3,30.00,NW,312,0.0,7.0,64,0.00,,SKC,0.00,547.00,VWS V14.01,2013-08-11 19:51:00,
2013-08-11 15:52:00,86.4,73.2,29.99,NW,312,0.0,7.0,65,0.00,,SKC,0.00,721.00,VWS V14.01,2013-08-11 19:52:00,
2013-08-11 15:53:00,86.5,73.3,29.99,NW,312,0.0,7.0,65,0.00,,SKC,0.00,659.00,VWS V14.01,2013-08-11 19:53:00,
2013-08-11 15:56:00,87.7,74.9,29.99,NW,312,0.0,7.0,66,0.00,,SKC,0.00,434.00,VWS V14.01,2013-08-11 19:56:00,
2013-08-11 15:58:00,88.0,73.8,29.99,NW,312,0.0,7.0,63,0.00,,SKC,0.00,621.00,VWS V14.01,2013-08-11 19:58:00,
2013-08-11 15:59:00,88.7,74.5,29.99,NW,312,0.0,7.0,63,0.00,,SKC,0.00,621.00,VWS V14.01,2013-08-11 19:59:00,
2013-08-11 16:01:00,88.5,73.3,29.99,NW,312,3.0,3.0,61,0.00,,SKC,0.00,272.00,VWS V14.01,2013-08-11 20:01:00,
2013-08-11 16:03:00,87.8,71.2,29.99,NW,322,3.0,4.0,58,0.00,,SKC,0.00,320.00,VWS V14.01,2013-08-11 20:03:00,
2013-08-11 16:04:00,87.6,71.5,29.99,NW,322,0.0,4.0,59,0.00,,SKC,0.00,237.00,VWS V14.01,2013-08-11 20:04:00,
2013-08-11 16:06:00,87.1,73.9,29.99,NW,322,0.0,4.0,65,0.00,,SKC,0.00,204.00,VWS V14.01,2013-08-11 20:06:00,
2013-08-11 16:08:00,86.3,71.8,29.99,NW,322,1.0,4.0,62,0.00,,SKC,0.00,197.00,VWS V14.01,2013-08-11 20:08:00,
2013-08-11 16:10:00,85.8,71.8,29.99,NW,322,0.0,4.0,63,0.00,,SKC,0.00,199.00,VWS V14.01,2013-08-11 20:10:00,
2013-08-11 16:11:00,85.5,71.5,29.99,NW,322,0.0,4.0,63,0.00,,SKC,0.00,200.00,VWS V14.01,2013-08-11 20:11:00,
2013-08-11 16:12:00,85.4,71.8,29.99,NW,322,0.0,4.0,64,0.00,,SKC,0.00,223.00,VWS V14.01,2013-08-11 20:12:00,
2013-08-11 16:13:00,85.2,72.6,29.99,NW,322,0.0,4.0,66,0.00,,SKC,0.00,253.00,VWS V14.01,2013-08-11 20:13:00,
2013-08-11 16:15:00,85.1,73.8,29.99,NW,322,0.0,4.0,69,0.00,,SKC,0.00,253.00,VWS V14.01,2013-08-11 20:15:00,
2013-08-11 16:18:00,84.9,72.3,29.99,NW,322,0.0,4.0,66,0.00,,SKC,0.00,677.00,VWS V14.01,2013-08-11 20:18:00,
2013-08-11 16:19:00,85.1,73.4,29.99,NW,322,0.0,4.0,68,0.00,,SKC,0.00,677.00,VWS V14.01,2013-08-11 20:19:00,
2013-08-11 16:20:00,85.5,73.3,30.00,ESE,103,2.0,4.0,67,0.00,,SKC,0.00,371.00,VWS V14.01,2013-08-11 20:20:00,
2013-08-11 16:23:00,85.6,72.9,29.99,SSE,148,3.0,4.0,66,0.00,,SKC,0.00,265.00,VWS V14.01,2013-08-11 20:23:00,
2013-08-11 16:24:00,85.6,74.3,29.99,SE,132,6.0,8.0,69,0.00,,SKC,0.00,243.00,VWS V14.01,2013-08-11 20:24:00,
2013-08-11 16:26:00,85.4,74.9,30.00,SSW,207,4.0,11.0,71,0.00,,SKC,0.00,218.00,VWS V14.01,2013-08-11 20:26:00,
2013-08-11 16:29:00,83.8,74.6,30.00,ESE,115,3.0,11.0,74,0.00,,SKC,0.00,232.00,VWS V14.01,2013-08-11 20:29:00,
2013-08-11 16:31:00,83.2,74.5,30.00,SSE,150,4.0,4.0,75,0.00,,SKC,0.00,260.00,VWS V14.01,2013-08-11 20:31:00,
2013-08-11 16:34:00,82.8,74.9,30.00,South,175,2.0,10.0,77,0.00,,SKC,0.00,396.00,VWS V14.01,2013-08-11 20:34:00,
2013-08-11 16:35:00,82.7,74.8,30.00,SSE,154,8.0,10.0,77,0.00,,SKC,0.00,221.00,VWS V14.01,2013-08-11 20:35:00,
2013-08-11 16:36:00,82.6,74.7,29.99,SE,138,3.0,11.0,77,0.00,,SKC,0.00,206.00,VWS V14.01,2013-08-11 20:36:00,
2013-08-11 16:39:00,82.5,74.9,30.00,SSW,202,2.0,11.0,78,0.00,,SKC,0.00,234.00,VWS V14.01,2013-08-11 20:39:00,
2013-08-11 16:40:00,82.4,74.9,30.00,SSW,198,3.0,11.0,78,0.00,,SKC,0.00,251.00,VWS V14.01,2013-08-11 20:40:00,
2013-08-11 16:41:00,82.3,74.8,30.00,SSE,150,5.0,11.0,78,0.00,,SKC,0.00,260.00,VWS V14.01,2013-08-11 20:41:00,
2013-08-11 16:44:00,82.0,74.5,30.00,SE,130,7.0,11.0,78,0.00,,SKC,0.00,239.00,VWS V14.01,2013-08-11 20:44:00,
2013-08-11 16:46:00,81.9,74.4,30.00,SW,217,3.0,11.0,78,0.00,,SKC,0.00,269.00,VWS V14.01,2013-08-11 20:46:00,
2013-08-11 16:50:00,82.0,74.5,30.00,SE,143,5.0,11.0,78,0.00,,SKC,0.00,262.00,VWS V14.01,2013-08-11 20:50:00,
2013-08-11 16:51:00,82.0,74.5,30.00,SSE,156,4.0,11.0,78,0.00,,SKC,0.00,248.00,VWS V14.01,2013-08-11 20:51:00,
2013-08-11 16:55:00,82.1,74.2,30.00,SSE,159,3.0,11.0,77,0.00,,SKC,0.00,186.00,VWS V14.01,2013-08-11 20:55:00,
2013-08-11 16:56:00,82.0,74.5,30.00,SSE,155,6.0,11.0,78,0.00,,SKC,0.00,172.00,VWS V14.01,2013-08-11 20:56:00,
2013-08-11 16:57:00,82.0,74.5,29.99,SE,137,4.0,11.0,78,0.00,,SKC,0.00,160.00,VWS V14.01,2013-08-11 20:57:00,
2013-08-11 17:00:00,81.7,74.2,30.00,SSW,199,6.0,11.0,78,0.00,,SKC,0.00,186.00,VWS V14.01,2013-08-11 21:00:00,
2013-08-11 17:01:00,81.6,73.7,30.00,SSW,207,3.0,3.0,77,0.00,,SKC,0.00,188.00,VWS V14.01,2013-08-11 21:01:00,
2013-08-11 17:03:00,81.5,74.0,30.00,SSW,205,1.0,4.0,78,0.00,,SKC,0.00,192.00,VWS V14.01,2013-08-11 21:03:00,
2013-08-11 17:06:00,81.4,74.3,30.00,SSW,205,1.0,4.0,79,0.00,,SKC,0.00,227.00,VWS V14.01,2013-08-11 21:06:00,
2013-08-11 17:07:00,81.4,74.3,30.00,SSW,205,0.0,4.0,79,0.00,,SKC,0.00,243.00,VWS V14.01,2013-08-11 21:07:00,
2013-08-11 17:08:00,81.4,74.3,29.99,SSW,208,1.0,4.0,79,0.00,,SKC,0.00,253.00,VWS V14.01,2013-08-11 21:08:00,
2013-08-11 17:12:00,81.7,74.6,29.99,South,182,0.0,4.0,79,0.00,,SKC,0.00,153.00,VWS V14.01,2013-08-11 21:12:00,
2013-08-11 17:15:00,81.6,74.5,29.99,SSW,203,3.0,4.0,79,0.00,,SKC,0.00,121.00,VWS V14.01,2013-08-11 21:15:00,
2013-08-11 17:17:00,81.4,73.9,29.99,SSW,203,1.0,4.0,78,0.00,,SKC,0.00,125.00,VWS V14.01,2013-08-11 21:17:00,
2013-08-11 17:19:00,81.4,74.6,29.99,SSW,203,4.0,4.0,80,0.00,,SKC,0.00,137.00,VWS V14.01,2013-08-11 21:19:00,
2013-08-11 17:20:00,81.2,73.7,29.99,SSW,202,2.0,4.0,78,0.00,,SKC,0.00,163.00,VWS V14.01,2013-08-11 21:20:00,
2013-08-11 17:22:00,81.1,74.0,29.99,SSW,202,1.0,4.0,79,0.00,,SKC,0.00,188.00,VWS V14.01,2013-08-11 21:22:00,
2013-08-11 17:24:00,81.1,74.0,29.99,SSW,208,3.0,5.0,79,0.00,,SKC,0.00,190.00,VWS V14.01,2013-08-11 21:24:00,
2013-08-11 17:26:00,80.9,73.8,29.99,SSW,209,4.0,5.0,79,0.00,,SKC,0.00,172.00,VWS V14.01,2013-08-11 21:26:00,
2013-08-11 17:27:00,80.8,73.7,29.99,SSW,209,2.0,5.0,79,0.00,,SKC,0.00,156.00,VWS V14.01,2013-08-11 21:27:00,
2013-08-11 17:29:00,80.7,74.0,29.99,SSW,209,0.0,5.0,80,0.00,,SKC,0.00,128.00,VWS V14.01,2013-08-11 21:29:00,
2013-08-11 17:31:00,80.7,74.3,29.99,SSW,202,2.0,5.0,81,0.00,,SKC,0.00,97.00,VWS V14.01,2013-08-11 21:31:00,
2013-08-11 17:32:00,80.7,74.3,29.99,SSW,202,0.0,1.0,81,0.00,,SKC,0.00,77.00,VWS V14.01,2013-08-11 21:32:00,
2013-08-11 17:34:00,80.8,74.4,29.99,SSW,202,0.0,1.0,81,0.00,,SKC,0.00,60.00,VWS V14.01,2013-08-11 21:34:00,
2013-08-11 17:36:00,80.9,74.9,29.99,SSW,202,0.0,1.0,82,0.00,,SKC,0.00,47.00,VWS V14.01,2013-08-11 21:36:00,
2013-08-11 17:37:00,80.9,74.9,30.00,NW,317,2.0,2.0,82,0.00,,SKC,0.00,35.00,VWS V14.01,2013-08-11 21:37:00,
2013-08-11 17:40:00,81.0,74.6,30.00,NNW,337,6.0,7.0,81,0.00,,SKC,0.00,19.00,VWS V14.01,2013-08-11 21:40:00,
2013-08-11 17:41:00,80.9,74.5,30.01,NNW,342,7.0,8.0,81,0.00,,SKC,0.00,18.00,VWS V14.01,2013-08-11 21:41:00,
2013-08-11 17:42:00,80.8,74.8,30.01,WNW,284,7.0,9.0,82,0.03,,SKC,0.03,14.00,VWS V14.01,2013-08-11 21:42:00,
2013-08-11 17:43:00,80.8,74.8,30.01,WNW,284,7.0,9.0,82,0.03,,SKC,0.03,14.00,VWS V14.01,2013-08-11 21:43:00,
2013-08-11 17:45:00,79.9,73.2,30.02,NW,325,14.0,20.0,80,0.14,,SKC,0.14,14.00,VWS V14.01,2013-08-11 21:45:00,
2013-08-11 17:46:00,79.2,73.2,30.03,NW,305,11.0,20.0,82,0.18,,SKC,0.18,14.00,VWS V14.01,2013-08-11 21:46:00,
2013-08-11 17:48:00,77.8,70.8,30.03,SW,235,7.0,20.0,79,0.31,,SKC,0.31,16.00,VWS V14.01,2013-08-11 21:48:00,
2013-08-11 17:50:00,75.0,70.9,30.03,SW,217,5.0,20.0,87,0.46,,SKC,0.46,23.00,VWS V14.01,2013-08-11 21:50:00,
2013-08-11 17:51:00,74.5,70.7,30.03,SSW,201,5.0,20.0,88,0.55,,SKC,0.55,25.00,VWS V14.01,2013-08-11 21:51:00,
2013-08-11 17:53:00,73.7,70.6,30.02,South,184,2.0,20.0,90,0.66,,SKC,0.66,47.00,VWS V14.01,2013-08-11 21:53:00,
2013-08-11 17:57:00,72.4,69.9,30.02,SSW,207,0.0,20.0,92,0.70,,SKC,0.70,63.00,VWS V14.01,2013-08-11 21:57:00,
2013-08-11 17:59:00,72.1,70.0,30.02,SSW,207,2.0,20.0,93,0.71,,SKC,0.71,77.00,VWS V14.01,2013-08-11 21:59:00,
2013-08-11 18:03:00,71.9,70.4,30.02,SSW,207,0.0,1.0,95,0.73,,SKC,0.73,128.00,VWS V14.01,2013-08-11 22:03:00,
2013-08-11 18:04:00,72.0,70.5,30.02,SSW,207,0.0,1.0,95,0.73,,SKC,0.73,135.00,VWS V14.01,2013-08-11 22:04:00,
2013-08-11 18:05:00,72.0,70.5,30.02,SSW,201,1.0,2.0,95,0.73,,SKC,0.73,142.00,VWS V14.01,2013-08-11 22:05:00,
2013-08-11 18:09:00,71.9,70.4,30.01,SSE,152,2.0,4.0,95,0.78,,SKC,0.78,199.00,VWS V14.01,2013-08-11 22:09:00,
2013-08-11 18:10:00,71.9,70.4,30.01,SE,142,4.0,4.0,95,0.78,,SKC,0.78,197.00,VWS V14.01,2013-08-11 22:10:00,
2013-08-11 18:14:00,71.9,70.7,30.00,SSE,163,0.0,4.0,96,0.79,,SKC,0.79,135.00,VWS V14.01,2013-08-11 22:14:00,
2013-08-11 18:15:00,71.9,70.7,30.00,SSE,163,0.0,4.0,96,0.79,,SKC,0.79,121.00,VWS V14.01,2013-08-11 22:15:00,
2013-08-11 18:19:00,72.2,71.0,30.00,SE,145,0.0,4.0,96,0.79,,SKC,0.79,100.00,VWS V14.01,2013-08-11 22:19:00,
2013-08-11 18:20:00,72.2,71.0,30.00,SE,141,0.0,4.0,96,0.79,,SKC,0.79,105.00,VWS V14.01,2013-08-11 22:20:00,
2013-08-11 18:21:00,72.2,71.0,30.00,SE,140,0.0,4.0,96,0.79,,SKC,0.79,109.00,VWS V14.01,2013-08-11 22:21:00,
2013-08-11 18:24:00,72.3,71.1,30.01,SE,133,0.0,4.0,96,0.79,,SKC,0.79,111.00,VWS V14.01,2013-08-11 22:24:00,
2013-08-11 18:25:00,72.3,71.1,30.01,SE,133,0.0,4.0,96,0.79,,SKC,0.79,109.00,VWS V14.01,2013-08-11 22:25:00,
2013-08-11 18:27:00,72.4,71.5,30.01,SE,133,0.0,4.0,97,0.79,,SKC,0.79,113.00,VWS V14.01,2013-08-11 22:27:00,
2013-08-11 18:29:00,72.5,71.6,30.00,SE,133,0.0,4.0,97,0.79,,SKC,0.79,123.00,VWS V14.01,2013-08-11 22:29:00,
2013-08-11 18:30:00,72.5,71.6,30.00,SE,134,0.0,4.0,97,0.79,,SKC,0.79,123.00,VWS V14.01,2013-08-11 22:30:00,
2013-08-11 18:31:00,72.5,71.6,30.00,SE,133,1.0,4.0,97,0.79,,SKC,0.79,118.00,VWS V14.01,2013-08-11 22:31:00,
2013-08-11 18:32:00,72.5,71.6,30.00,SE,134,1.0,2.0,97,0.79,,SKC,0.79,109.00,VWS V14.01,2013-08-11 22:32:00,
2013-08-11 18:35:00,72.3,71.1,30.00,SE,135,1.0,2.0,96,0.79,,SKC,0.79,74.00,VWS V14.01,2013-08-11 22:35:00,
2013-08-11 18:36:00,72.2,71.3,30.01,SE,135,1.0,2.0,97,0.79,,SKC,0.79,67.00,VWS V14.01,2013-08-11 22:36:00,
2013-08-11 18:37:00,72.3,71.4,30.00,SE,135,0.0,2.0,97,0.79,,SKC,0.79,56.00,VWS V14.01,2013-08-11 22:37:00,
2013-08-11 18:40:00,72.4,71.5,30.01,SE,135,2.0,3.0,97,0.79,,SKC,0.79,39.00,VWS V14.01,2013-08-11 22:40:00,
2013-08-11 18:41:00,72.4,71.5,30.00,SE,135,0.0,3.0,97,0.79,,SKC,0.79,33.00,VWS V14.01,2013-08-11 22:41:00,
2013-08-11 18:43:00,72.4,71.5,30.01,SE,135,0.0,3.0,97,0.79,,SKC,0.79,28.00,VWS V14.01,2013-08-11 22:43:00,
2013-08-11 18:46:00,72.5,71.6,30.00,SE,135,0.0,3.0,97,0.79,,SKC,0.79,26.00,VWS V14.01,2013-08-11 22:46:00,
2013-08-11 18:48:00,72.4,71.5,30.01,SE,135,0.0,3.0,97,0.79,,SKC,0.79,28.00,VWS V14.01,2013-08-11 22:48:00,
2013-08-11 18:51:00,72.4,71.5,30.01,SE,135,0.0,3.0,97,0.79,,SKC,0.79,39.00,VWS V14.01,2013-08-11 22:51:00,
2013-08-11 18:53:00,72.5,71.6,30.00,SE,135,0.0,3.0,97,0.79,,SKC,0.79,39.00,VWS V14.01,2013-08-11 22:53:00,
2013-08-11 18:56:00,72.6,71.7,30.00,SE,135,0.0,3.0,97,0.79,,SKC,0.79,40.00,VWS V14.01,2013-08-11 22:56:00,
2013-08-11 18:58:00,72.7,71.8,30.00,SE,135,0.0,3.0,97,0.79,,SKC,0.79,37.00,VWS V14.01,2013-08-11 22:58:00,
2013-08-11 19:01:00,72.6,71.7,30.00,SE,135,0.0,0.0,97,0.07,,SKC,0.79,30.00,VWS V14.01,2013-08-11 23:01:00,
2013-08-11 19:02:00,72.7,71.8,30.00,SE,135,0.0,0.0,97,0.07,,SKC,0.79,28.00,VWS V14.01,2013-08-11 23:02:00,
2013-08-11 19:03:00,72.7,71.8,30.00,SE,135,0.0,0.0,97,0.07,,SKC,0.79,26.00,VWS V14.01,2013-08-11 23:03:00,
2013-08-11 19:06:00,72.6,71.7,30.00,SE,135,1.0,2.0,97,0.07,,SKC,0.79,25.00,VWS V14.01,2013-08-11 23:06:00,
2013-08-11 19:07:00,72.6,71.7,30.00,SE,135,1.0,2.0,97,0.07,,SKC,0.79,25.00,VWS V14.01,2013-08-11 23:07:00,
2013-08-11 19:08:00,72.6,71.7,30.00,SE,135,1.0,2.0,97,0.07,,SKC,0.79,23.00,VWS V14.01,2013-08-11 23:08:00,
2013-08-11 19:09:00,72.6,71.7,30.01,SE,135,1.0,2.0,97,0.07,,SKC,0.79,23.00,VWS V14.01,2013-08-11 23:09:00,
2013-08-11 19:12:00,72.5,71.6,30.00,SE,135,0.0,2.0,97,0.07,,SKC,0.79,21.00,VWS V14.01,2013-08-11 23:12:00,
2013-08-11 19:13:00,72.5,71.6,30.00,SE,135,0.0,2.0,97,0.07,,SKC,0.79,19.00,VWS V14.01,2013-08-11 23:13:00,
2013-08-11 19:15:00,72.5,71.6,30.01,SE,135,0.0,2.0,97,0.07,,SKC,0.79,18.00,VWS V14.01,2013-08-11 23:15:00,
2013-08-11 19:18:00,72.5,71.9,30.00,SE,135,1.0,2.0,98,0.07,,SKC,0.79,18.00,VWS V14.01,2013-08-11 23:18:00,
2013-08-11 19:19:00,72.4,71.8,30.00,SE,135,1.0,2.0,98,0.07,,SKC,0.79,19.00,VWS V14.01,2013-08-11 23:19:00,
2013-08-11 19:20:00,72.4,71.8,30.00,SE,135,0.0,2.0,98,0.07,,SKC,0.79,19.00,VWS V14.01,2013-08-11 23:20:00,
2013-08-11 19:24:00,72.5,71.9,30.00,SE,135,0.0,2.0,98,0.07,,SKC,0.79,11.00,VWS V14.01,2013-08-11 23:24:00,
2013-08-11 19:26:00,72.6,72.0,30.01,SE,135,1.0,3.0,98,0.08,,SKC,0.80,7.00,VWS V14.01,2013-08-11 23:26:00,
2013-08-11 19:29:00,72.7,72.1,30.02,SE,135,1.0,3.0,98,0.10,,SKC,0.82,5.00,VWS V14.01,2013-08-11 23:29:00,
2013-08-11 19:30:00,72.7,72.1,30.02,SE,135,1.0,3.0,98,0.10,,SKC,0.82,5.00,VWS V14.01,2013-08-11 23:30:00,
2013-08-11 19:31:00,72.7,72.1,30.03,NNW,332,2.0,4.0,98,0.11,,SKC,0.83,5.00,VWS V14.01,2013-08-11 23:31:00,
2013-08-11 19:34:00,72.4,71.8,30.03,North,350,3.0,8.0,98,0.11,,SKC,0.90,7.00,VWS V14.01,2013-08-11 23:34:00,
2013-08-11 19:35:00,72.3,71.7,30.03,North,351,2.0,8.0,98,0.16,,SKC,0.95,9.00,VWS V14.01,2013-08-11 23:35:00,
2013-08-11 19:36:00,72.2,71.3,30.03,North,355,4.0,8.0,97,0.17,,SKC,0.96,9.00,VWS V14.01,2013-08-11 23:36:00,
2013-08-11 19:39:00,72.0,71.1,30.02,North,355,3.0,8.0,97,0.25,,SKC,1.04,9.00,VWS V14.01,2013-08-11 23:39:00,
2013-08-11 19:40:00,72.0,71.1,30.02,North,355,3.0,8.0,97,0.26,,SKC,1.05,9.00,VWS V14.01,2013-08-11 23:40:00,
2013-08-11 19:41:00,71.8,70.9,30.02,North,355,0.0,8.0,97,0.26,,SKC,1.05,9.00,VWS V14.01,2013-08-11 23:41:00,
2013-08-11 19:42:00,71.8,70.9,30.02,North,355,1.0,8.0,97,0.26,,SKC,1.05,9.00,VWS V14.01,2013-08-11 23:42:00,
2013-08-11 19:45:00,71.5,70.6,30.02,WNW,298,1.0,8.0,97,0.27,,SKC,1.06,7.00,VWS V14.01,2013-08-11 23:45:00,
2013-08-11 19:46:00,71.4,70.5,30.02,WNW,298,0.0,8.0,97,0.27,,SKC,1.06,7.00,VWS V14.01,2013-08-11 23:46:00,
2013-08-11 19:47:00,71.4,70.5,30.02,WNW,298,0.0,8.0,97,0.27,,SKC,1.06,7.00,VWS V14.01,2013-08-11 23:47:00,
2013-08-11 19:50:00,71.5,70.9,30.03,WNW,298,0.0,8.0,98,0.27,,SKC,1.06,7.00,VWS V14.01,2013-08-11 23:50:00,
2013-08-11 19:51:00,71.5,70.9,30.02,WNW,298,0.0,8.0,98,0.27,,SKC,1.06,9.00,VWS V14.01,2013-08-11 23:51:00,
2013-08-11 19:52:00,71.5,70.9,30.02,WNW,298,0.0,8.0,98,0.27,,SKC,1.06,9.00,VWS V14.01,2013-08-11 23:52:00,
2013-08-11 19:55:00,71.5,70.9,30.02,WNW,298,0.0,8.0,98,0.27,,SKC,1.06,9.00,VWS V14.01,2013-08-11 23:55:00,
2013-08-11 19:57:00,71.5,70.9,30.02,WNW,298,0.0,8.0,98,0.27,,SKC,1.06,9.00,VWS V14.01,2013-08-11 23:57:00,
2013-08-11 20:01:00,71.5,70.9,30.03,WNW,298,0.0,8.0,98,0.27,,SKC,1.06,9.00,VWS V14.01,2013-08-12 00:01:00,
2013-08-11 20:03:00,71.5,70.9,30.03,WNW,298,0.0,0.0,98,0.27,,SKC,1.06,9.00,VWS V14.01,2013-08-12 00:03:00,
2013-08-11 20:06:00,71.5,70.9,30.02,WNW,298,0.0,0.0,98,0.27,,SKC,1.06,7.00,VWS V14.01,2013-08-12 00:06:00,
2013-08-11 20:08:00,71.5,70.9,30.02,WNW,298,0.0,0.0,98,0.27,,SKC,1.06,7.00,VWS V14.01,2013-08-12 00:08:00,
2013-08-11 20:12:00,71.5,70.9,30.03,WNW,298,0.0,0.0,98,0.27,,SKC,1.06,0.00,VWS V14.01,2013-08-12 00:12:00,
2013-08-11 20:13:00,71.5,70.9,30.03,WNW,298,0.0,1.0,98,0.27,,SKC,1.06,0.00,VWS V14.01,2013-08-12 00:13:00,
2013-08-11 20:17:00,71.5,70.9,30.03,WNW,298,2.0,2.0,98,0.27,,SKC,1.06,0.00,VWS V14.01,2013-08-12 00:17:00,
2013-08-11 20:19:00,71.4,70.8,30.03,WNW,298,2.0,3.0,98,0.27,,SKC,1.06,0.00,VWS V14.01,2013-08-12 00:19:00,
2013-08-11 20:22:00,71.4,70.8,30.03,WNW,298,0.0,3.0,98,0.27,,SKC,1.06,0.00,VWS V14.01,2013-08-12 00:22:00,
2013-08-11 20:24:00,71.4,70.8,30.03,WNW,298,0.0,3.0,98,0.27,,SKC,1.06,0.00,VWS V14.01,2013-08-12 00:24:00,
2013-08-11 20:25:00,71.4,70.8,30.03,WNW,298,0.0,3.0,98,0.27,,SKC,1.06,0.00,VWS V14.01,2013-08-12 00:25:00,
2013-08-11 20:28:00,71.3,70.7,30.03,WNW,298,0.0,3.0,98,0.27,,SKC,1.06,0.00,VWS V14.01,2013-08-12 00:28:00,
2013-08-11 20:29:00,71.3,70.7,30.02,WNW,298,0.0,3.0,98,0.27,,SKC,1.06,0.00,VWS V14.01,2013-08-12 00:29:00,
2013-08-11 20:30:00,71.3,70.7,30.02,WNW,298,1.0,3.0,98,0.27,,SKC,1.06,0.00,VWS V14.01,2013-08-12 00:30:00,
2013-08-11 20:31:00,71.3,70.7,30.02,WNW,298,0.0,3.0,98,0.27,,SKC,1.06,0.00,VWS V14.01,2013-08-12 00:31:00,
2013-08-11 20:33:00,71.3,70.7,30.02,WNW,298,0.0,0.0,98,0.23,,SKC,1.06,0.00,VWS V14.01,2013-08-12 00:33:00,
2013-08-11 20:34:00,71.3,70.7,30.03,WNW,298,0.0,0.0,98,0.23,,SKC,1.06,0.00,VWS V14.01,2013-08-12 00:34:00,
2013-08-11 20:36:00,71.3,70.7,30.03,WNW,298,0.0,0.0,98,0.23,,SKC,1.06,0.00,VWS V14.01,2013-08-12 00:36:00,
2013-08-11 20:38:00,71.4,70.8,30.02,WNW,298,0.0,0.0,98,0.23,,SKC,1.06,0.00,VWS V14.01,2013-08-12 00:38:00,
2013-08-11 20:39:00,71.4,70.8,30.02,WNW,298,0.0,0.0,98,0.23,,SKC,1.06,0.00,VWS V14.01,2013-08-12 00:39:00,
2013-08-11 20:41:00,71.3,70.7,30.02,WNW,298,0.0,1.0,98,0.23,,SKC,1.06,0.00,VWS V14.01,2013-08-12 00:41:00,
2013-08-11 20:42:00,71.4,70.8,30.02,WNW,298,0.0,1.0,98,0.23,,SKC,1.06,0.00,VWS V14.01,2013-08-12 00:42:00,
2013-08-11 20:44:00,71.3,70.7,30.03,WNW,298,0.0,1.0,98,0.23,,SKC,1.06,0.00,VWS V14.01,2013-08-12 00:44:00,
2013-08-11 20:46:00,71.3,70.7,30.03,WNW,298,0.0,1.0,98,0.23,,SKC,1.06,0.00,VWS V14.01,2013-08-12 00:46:00,
2013-08-11 20:47:00,71.3,70.7,30.03,WNW,298,0.0,1.0,98,0.23,,SKC,1.06,0.00,VWS V14.01,2013-08-12 00:47:00,
2013-08-11 20:50:00,71.4,71.1,30.03,WNW,298,0.0,1.0,99,0.23,,SKC,1.06,0.00,VWS V14.01,2013-08-12 00:50:00,
2013-08-11 20:52:00,71.4,71.1,30.03,WNW,298,0.0,1.0,99,0.23,,SKC,1.06,0.00,VWS V14.01,2013-08-12 00:52:00,
2013-08-11 20:53:00,71.5,70.9,30.03,WNW,298,0.0,1.0,98,0.23,,SKC,1.06,0.00,VWS V14.01,2013-08-12 00:53:00,
2013-08-11 20:55:00,71.4,71.1,30.03,WNW,298,0.0,1.0,99,0.23,,SKC,1.06,0.00,VWS V14.01,2013-08-12 00:55:00,
2013-08-11 20:57:00,71.5,71.2,30.03,WNW,298,0.0,1.0,99,0.23,,SKC,1.06,0.00,VWS V14.01,2013-08-12 00:57:00,
2013-08-11 20:58:00,71.5,71.2,30.03,WNW,298,0.0,1.0,99,0.23,,SKC,1.06,0.00,VWS V14.01,2013-08-12 00:58:00,
2013-08-11 21:00:00,71.5,71.2,30.03,WNW,298,0.0,1.0,99,0.23,,SKC,1.06,0.00,VWS V14.01,2013-08-12 01:00:00,
2013-08-11 21:01:00,71.5,71.2,30.03,WNW,298,0.0,1.0,99,0.23,,SKC,1.06,0.00,VWS V14.01,2013-08-12 01:01:00,
2013-08-11 21:02:00,71.5,70.9,30.03,WNW,298,1.0,2.0,98,0.00,,SKC,1.06,0.00,VWS V14.01,2013-08-12 01:02:00,
2013-08-11 21:03:00,71.5,70.9,30.03,WNW,298,2.0,2.0,98,0.00,,SKC,1.06,0.00,VWS V14.01,2013-08-12 01:03:00,
2013-08-11 21:06:00,71.4,70.8,30.03,WNW,298,3.0,3.0,98,0.00,,SKC,1.06,0.00,VWS V14.01,2013-08-12 01:06:00,
2013-08-11 21:08:00,71.4,71.1,30.03,WNW,298,2.0,3.0,99,0.00,,SKC,1.06,0.00,VWS V14.01,2013-08-12 01:08:00,
2013-08-11 21:09:00,71.4,71.1,30.03,WNW,298,1.0,3.0,99,0.00,,SKC,1.06,0.00,VWS V14.01,2013-08-12 01:09:00,
2013-08-11 21:11:00,71.4,71.1,30.03,WNW,298,0.0,3.0,99,0.00,,SKC,1.06,0.00,VWS V14.01,2013-08-12 01:11:00,
2013-08-11 21:12:00,71.4,71.1,30.03,WNW,298,0.0,3.0,99,0.00,,SKC,1.06,0.00,VWS V14.01,2013-08-12 01:12:00,
2013-08-11 21:14:00,71.4,71.1,30.04,WNW,298,0.0,3.0,99,0.00,,SKC,1.06,0.00,VWS V14.01,2013-08-12 01:14:00,
2013-08-11 21:17:00,71.4,71.1,30.04,WNW,298,0.0,3.0,99,0.00,,SKC,1.06,0.00,VWS V14.01,2013-08-12 01:17:00,
2013-08-11 21:19:00,71.4,71.1,30.04,WNW,298,0.0,3.0,99,0.00,,SKC,1.06,0.00,VWS V14.01,2013-08-12 01:19:00,
2013-08-11 21:20:00,71.5,71.2,30.04,WNW,298,0.0,3.0,99,0.00,,SKC,1.06,0.00,VWS V14.01,2013-08-12 01:20:00,
2013-08-11 21:22:00,71.5,71.2,30.04,WNW,298,0.0,3.0,99,0.00,,SKC,1.06,0.00,VWS V14.01,2013-08-12 01:22:00,
2013-08-11 21:23:00,71.5,71.2,30.04,WNW,298,0.0,3.0,99,0.00,,SKC,1.06,0.00,VWS V14.01,2013-08-12 01:23:00,
2013-08-11 21:24:00,71.6,71.3,30.04,WNW,298,0.0,3.0,99,0.00,,SKC,1.06,0.00,VWS V14.01,2013-08-12 01:24:00,
2013-08-11 21:26:00,71.6,71.3,30.04,WNW,298,0.0,3.0,99,0.00,,SKC,1.06,0.00,VWS V14.01,2013-08-12 01:26:00,
2013-08-11 21:27:00,71.6,71.3,30.05,WNW,298,0.0,3.0,99,0.00,,SKC,1.06,0.00,VWS V14.01,2013-08-12 01:27:00,
2013-08-11 21:28:00,71.6,71.3,30.04,WNW,298,0.0,3.0,99,0.00,,SKC,1.06,0.00,VWS V14.01,2013-08-12 01:28:00,
2013-08-11 21:30:00,71.6,71.3,30.05,WNW,298,0.0,3.0,99,0.00,,SKC,1.06,0.00,VWS V14.01,2013-08-12 01:30:00,
2013-08-11 21:31:00,71.6,71.3,30.05,WNW,298,0.0,0.0,99,0.00,,SKC,1.06,0.00,VWS V14.01,2013-08-12 01:31:00,
2013-08-11 21:32:00,71.6,71.3,30.05,WNW,298,0.0,1.0,99,0.00,,SKC,1.06,0.00,VWS V14.01,2013-08-12 01:32:00,
2013-08-11 21:33:00,71.6,71.3,30.05,WNW,298,1.0,1.0,99,0.00,,SKC,1.06,0.00,VWS V14.01,2013-08-12 01:33:00,
2013-08-11 21:35:00,71.6,71.3,30.05,WNW,298,1.0,2.0,99,0.00,,SKC,1.06,0.00,VWS V14.01,2013-08-12 01:35:00,
2013-08-11 21:36:00,71.6,71.3,30.04,WNW,298,0.0,2.0,99,0.00,,SKC,1.06,0.00,VWS V14.01,2013-08-12 01:36:00,
2013-08-11 21:37:00,71.6,71.3,30.04,WNW,298,1.0,2.0,99,0.00,,SKC,1.06,0.00,VWS V14.01,2013-08-12 01:37:00,
2013-08-11 21:38:00,71.5,71.2,30.04,WNW,298,1.0,2.0,99,0.00,,SKC,1.06,0.00,VWS V14.01,2013-08-12 01:38:00,
2013-08-11 21:40:00,71.5,71.2,30.05,WNW,298,2.0,2.0,99,0.00,,SKC,1.06,0.00,VWS V14.01,2013-08-12 01:40:00,
2013-08-11 21:41:00,71.5,71.2,30.05,WNW,298,1.0,2.0,99,0.00,,SKC,1.06,0.00,VWS V14.01,2013-08-12 01:41:00,
2013-08-11 21:43:00,71.5,71.2,30.05,WNW,298,0.0,2.0,99,0.00,,SKC,1.06,0.00,VWS V14.01,2013-08-12 01:43:00,
2013-08-11 21:46:00,71.5,71.2,30.05,WNW,298,0.0,2.0,99,0.00,,SKC,1.06,0.00,VWS V14.01,2013-08-12 01:46:00,
2013-08-11 21:47:00,71.5,71.2,30.05,WNW,298,0.0,2.0,99,0.00,,SKC,1.06,0.00,VWS V14.01,2013-08-12 01:47:00,
2013-08-11 21:48:00,71.5,71.2,30.05,WNW,298,0.0,2.0,99,0.00,,SKC,1.06,0.00,VWS V14.01,2013-08-12 01:48:00,
2013-08-11 21:49:00,71.5,71.2,30.05,WNW,298,0.0,2.0,99,0.00,,SKC,1.06,0.00,VWS V14.01,2013-08-12 01:49:00,
2013-08-11 21:52:00,71.5,71.2,30.04,WNW,298,0.0,2.0,99,0.00,,SKC,1.06,0.00,VWS V14.01,2013-08-12 01:52:00,
2013-08-11 21:54:00,71.5,71.2,30.04,WNW,298,0.0,2.0,99,0.00,,SKC,1.06,0.00,VWS V14.01,2013-08-12 01:54:00,
2013-08-11 21:57:00,71.5,71.2,30.04,WNW,298,0.0,2.0,99,0.00,,SKC,1.06,0.00,VWS V14.01,2013-08-12 01:57:00,
2013-08-11 21:59:00,71.6,71.3,30.04,WNW,298,0.0,2.0,99,0.00,,SKC,1.06,0.00,VWS V14.01,2013-08-12 01:59:00,
2013-08-11 22:02:00,71.6,71.3,30.04,WNW,298,0.0,0.0,99,0.00,,SKC,1.06,0.00,VWS V14.01,2013-08-12 02:02:00,
2013-08-11 22:04:00,71.6,71.3,30.04,WNW,298,0.0,0.0,99,0.00,,SKC,1.06,0.00,VWS V14.01,2013-08-12 02:04:00,
2013-08-11 22:07:00,71.7,71.4,30.04,WNW,298,0.0,0.0,99,0.00,,SKC,1.06,0.00,VWS V14.01,2013-08-12 02:07:00,
2013-08-11 22:09:00,71.7,71.4,30.03,WNW,298,0.0,0.0,99,0.00,,SKC,1.06,0.00,VWS V14.01,2013-08-12 02:09:00,
2013-08-11 22:10:00,71.7,71.4,30.04,WNW,298,0.0,0.0,99,0.00,,SKC,1.06,0.00,VWS V14.01,2013-08-12 02:10:00,
2013-08-11 22:13:00,71.7,71.4,30.03,WNW,298,0.0,0.0,99,0.00,,SKC,1.06,0.00,VWS V14.01,2013-08-12 02:13:00,
2013-08-11 22:14:00,71.7,71.4,30.03,WNW,298,0.0,0.0,99,0.00,,SKC,1.06,0.00,VWS V14.01,2013-08-12 02:14:00,
2013-08-11 22:15:00,71.7,71.4,30.03,WNW,298,0.0,0.0,99,0.00,,SKC,1.06,0.00,VWS V14.01,2013-08-12 02:15:00,
2013-08-11 22:18:00,71.6,71.3,30.03,WNW,298,0.0,0.0,99,0.00,,SKC,1.06,0.00,VWS V14.01,2013-08-12 02:18:00,
2013-08-11 22:20:00,71.6,71.3,30.03,WNW,298,0.0,0.0,99,0.00,,SKC,1.06,0.00,VWS V14.01,2013-08-12 02:20:00,
2013-08-11 22:21:00,71.6,71.3,30.03,WNW,298,0.0,0.0,99,0.00,,SKC,1.06,0.00,VWS V14.01,2013-08-12 02:21:00,
2013-08-11 22:23:00,71.5,71.2,30.03,WNW,298,0.0,0.0,99,0.00,,SKC,1.06,0.00,VWS V14.01,2013-08-12 02:23:00,
2013-08-11 22:25:00,71.5,71.2,30.03,WNW,298,1.0,1.0,99,0.00,,SKC,1.06,0.00,VWS V14.01,2013-08-12 02:25:00,
2013-08-11 22:27:00,71.5,71.2,30.03,WNW,298,0.0,1.0,99,0.00,,SKC,1.06,0.00,VWS V14.01,2013-08-12 02:27:00,
2013-08-11 22:28:00,71.4,71.1,30.03,WNW,298,0.0,1.0,99,0.00,,SKC,1.06,0.00,VWS V14.01,2013-08-12 02:28:00,
2013-08-11 22:29:00,71.4,71.1,30.03,WNW,298,0.0,1.0,99,0.00,,SKC,1.06,0.00,VWS V14.01,2013-08-12 02:29:00,
2013-08-11 22:30:00,71.4,71.1,30.03,WNW,298,0.0,1.0,99,0.00,,SKC,1.06,0.00,VWS V14.01,2013-08-12 02:30:00,
2013-08-11 22:32:00,71.3,71.0,30.03,WNW,298,0.0,0.0,99,0.00,,SKC,1.06,0.00,VWS V14.01,2013-08-12 02:32:00,
2013-08-11 22:33:00,71.3,71.0,30.03,WNW,298,0.0,0.0,99,0.00,,SKC,1.06,0.00,VWS V14.01,2013-08-12 02:33:00,
2013-08-11 22:35:00,71.3,71.0,30.03,WNW,298,0.0,0.0,99,0.00,,SKC,1.06,0.00,VWS V14.01,2013-08-12 02:35:00,
2013-08-11 22:38:00,71.3,71.0,30.02,WNW,298,0.0,0.0,99,0.00,,SKC,1.06,0.00,VWS V14.01,2013-08-12 02:38:00,
2013-08-11 22:39:00,71.3,71.0,30.02,WNW,298,0.0,0.0,99,0.00,,SKC,1.06,0.00,VWS V14.01,2013-08-12 02:39:00,
2013-08-11 22:40:00,71.2,70.9,30.02,WNW,298,0.0,0.0,99,0.00,,SKC,1.06,0.00,VWS V14.01,2013-08-12 02:40:00,
2013-08-11 22:43:00,71.2,70.9,30.02,WNW,298,0.0,1.0,99,0.00,,SKC,1.06,0.00,VWS V14.01,2013-08-12 02:43:00,
2013-08-11 22:44:00,71.2,70.9,30.02,WNW,298,1.0,1.0,99,0.00,,SKC,1.06,0.00,VWS V14.01,2013-08-12 02:44:00,
2013-08-11 22:45:00,71.2,70.9,30.02,WNW,298,1.0,1.0,99,0.00,,SKC,1.06,0.00,VWS V14.01,2013-08-12 02:45:00,
2013-08-11 22:46:00,71.1,70.8,30.02,WNW,298,1.0,1.0,99,0.00,,SKC,1.06,0.00,VWS V14.01,2013-08-12 02:46:00,
2013-08-11 22:49:00,71.1,70.8,30.02,WNW,298,0.0,1.0,99,0.00,,SKC,1.06,0.00,VWS V14.01,2013-08-12 02:49:00,
2013-08-11 22:51:00,71.0,70.7,30.03,WNW,298,0.0,1.0,99,0.00,,SKC,1.06,0.00,VWS V14.01,2013-08-12 02:51:00,
2013-08-11 22:54:00,71.0,70.7,30.03,WNW,298,0.0,1.0,99,0.00,,SKC,1.06,0.00,VWS V14.01,2013-08-12 02:54:00,
2013-08-11 22:56:00,71.0,70.7,30.03,WNW,298,0.0,1.0,99,0.00,,SKC,1.06,0.00,VWS V14.01,2013-08-12 02:56:00,
2013-08-11 22:59:00,71.0,70.7,30.03,WNW,298,0.0,1.0,99,0.00,,SKC,1.06,0.00,VWS V14.01,2013-08-12 02:59:00,
2013-08-11 23:01:00,70.9,70.6,30.03,WNW,298,0.0,0.0,99,0.00,,SKC,1.06,0.00,VWS V14.01,2013-08-12 03:01:00,
2013-08-11 23:04:00,70.9,70.6,30.03,WNW,298,1.0,1.0,99,0.00,,SKC,1.06,0.00,VWS V14.01,2013-08-12 03:04:00,
2013-08-11 23:05:00,70.8,70.5,30.03,WNW,298,0.0,1.0,99,0.00,,SKC,1.06,0.00,VWS V14.01,2013-08-12 03:05:00,
2013-08-11 23:07:00,70.8,70.5,30.03,WNW,298,1.0,1.0,99,0.00,,SKC,1.06,0.00,VWS V14.01,2013-08-12 03:07:00,
2013-08-11 23:08:00,70.8,70.5,30.03,WNW,298,0.0,1.0,99,0.00,,SKC,1.06,0.00,VWS V14.01,2013-08-12 03:08:00,
2013-08-11 23:10:00,70.7,70.4,30.03,WNW,298,0.0,1.0,99,0.00,,SKC,1.06,0.00,VWS V14.01,2013-08-12 03:10:00,
2013-08-11 23:11:00,70.8,70.5,30.03,WNW,298,0.0,1.0,99,0.00,,SKC,1.06,0.00,VWS V14.01,2013-08-12 03:11:00,
2013-08-11 23:12:00,70.7,70.4,30.03,WNW,298,0.0,1.0,99,0.00,,SKC,1.06,0.00,VWS V14.01,2013-08-12 03:12:00,
2013-08-11 23:13:00,70.7,70.4,30.03,WNW,298,0.0,1.0,99,0.00,,SKC,1.06,0.00,VWS V14.01,2013-08-12 03:13:00,
2013-08-11 23:16:00,70.7,70.4,30.03,WNW,298,0.0,1.0,99,0.00,,SKC,1.06,0.00,VWS V14.01,2013-08-12 03:16:00,
2013-08-11 23:17:00,70.7,70.4,30.03,WNW,298,0.0,1.0,99,0.00,,SKC,1.06,0.00,VWS V14.01,2013-08-12 03:17:00,
2013-08-11 23:18:00,70.8,70.5,30.03,WNW,298,0.0,1.0,99,0.00,,SKC,1.06,0.00,VWS V14.01,2013-08-12 03:18:00,
2013-08-11 23:21:00,70.8,70.5,30.03,WNW,298,0.0,1.0,99,0.00,,SKC,1.06,0.00,VWS V14.01,2013-08-12 03:21:00,
2013-08-11 23:23:00,70.9,70.6,30.03,WNW,298,0.0,2.0,99,0.00,,SKC,1.06,0.00,VWS V14.01,2013-08-12 03:23:00,
2013-08-11 23:24:00,70.9,70.6,30.03,WNW,298,0.0,2.0,99,0.00,,SKC,1.06,0.00,VWS V14.01,2013-08-12 03:24:00,
2013-08-11 23:26:00,70.9,70.6,30.03,WNW,298,1.0,3.0,99,0.00,,SKC,1.06,0.00,VWS V14.01,2013-08-12 03:26:00,
2013-08-11 23:28:00,70.9,70.6,30.03,WNW,298,0.0,3.0,99,0.00,,SKC,1.06,0.00,VWS V14.01,2013-08-12 03:28:00,
2013-08-11 23:29:00,71.0,70.7,30.03,WNW,298,0.0,3.0,99,0.00,,SKC,1.06,0.00,VWS V14.01,2013-08-12 03:29:00,
2013-08-11 23:32:00,70.8,70.5,30.03,WNW,298,0.0,0.0,99,0.00,,SKC,1.06,0.00,VWS V14.01,2013-08-12 03:32:00,
2013-08-11 23:33:00,70.6,70.3,30.03,WNW,298,0.0,0.0,99,0.00,,SKC,1.06,0.00,VWS V14.01,2013-08-12 03:33:00,
2013-08-11 23:34:00,70.6,70.3,30.03,WNW,298,0.0,0.0,99,0.00,,SKC,1.06,0.00,VWS V14.01,2013-08-12 03:34:00,
2013-08-11 23:38:00,70.5,70.2,30.03,WNW,298,0.0,1.0,99,0.00,,SKC,1.06,0.00,VWS V14.01,2013-08-12 03:38:00,
2013-08-11 23:39:00,70.5,70.2,30.03,WNW,298,0.0,1.0,99,0.00,,SKC,1.06,0.00,VWS V14.01,2013-08-12 03:39:00,
2013-08-11 23:43:00,70.4,70.1,30.03,WNW,298,0.0,2.0,99,0.00,,SKC,1.06,0.00,VWS V14.01,2013-08-12 03:43:00,
2013-08-11 23:44:00,70.4,70.1,30.03,WNW,298,0.0,2.0,99,0.00,,SKC,1.06,0.00,VWS V14.01,2013-08-12 03:44:00,
2013-08-11 23:48:00,70.4,70.1,30.03,WNW,298,0.0,2.0,99,0.00,,SKC,1.06,0.00,VWS V14.01,2013-08-12 03:48:00,
2013-08-11 23:49:00,70.5,70.2,30.03,WNW,298,0.0,2.0,99,0.00,,SKC,1.06,0.00,VWS V14.01,2013-08-12 03:49:00,
2013-08-11 23:53:00,70.3,70.0,30.03,WNW,298,0.0,2.0,99,0.00,,SKC,1.06,0.00,VWS V14.01,2013-08-12 03:53:00,
2013-08-11 23:54:00,70.3,70.0,30.03,WNW,298,0.0,2.0,99,0.00,,SKC,1.06,0.00,VWS V14.01,2013-08-12 03:54:00,
2013-08-11 23:56:00,70.3,70.0,30.03,WNW,298,0.0,2.0,99,0.00,,SKC,1.06,0.00,VWS V14.01,2013-08-12 03:56:00,
2013-08-11 23:58:00,70.3,70.0,30.03,WNW,298,0.0,2.0,99,0.00,,SKC,1.06,0.00,VWS V14.01,2013-08-12 03:58:00,